| time (UTC) | temp F | wind direction | speed MPH | gust MPH | rain 1hr in | rain 24hr in | rain mn in | humidity % | barometer mb |
| 20260903022904 | 67 | 243 | 12.0 | 18.0 | 0.00 | 0.00 | 0.00 | 17 | 1011.6 |
| 20260903022804 | 67 | 244 | 14.0 | 18.0 | 0.00 | 0.00 | 0.00 | 17 | 1011.5 |
| 20260903022704 | 67 | 247 | 10.0 | 17.0 | 0.00 | 0.00 | 0.00 | 16 | 1011.4 |
| 20260903022603 | 67 | 253 | 11.0 | 17.0 | 0.00 | 0.00 | 0.00 | 16 | 1011.4 |
| 20260903022503 | 67 | 263 | 10.0 | 17.0 | 0.00 | 0.00 | 0.00 | 16 | 1011.6 |
| 20260903022404 | 67 | 270 | 10.0 | 17.0 | 0.00 | 0.00 | 0.00 | 16 | 1011.5 |
| 20260903021704 | 68 | 263 | 8.0 | 17.0 | 0.00 | 0.00 | 0.00 | 14 | 1011.4 |
| 20260903021603 | 68 | 263 | 8.0 | 17.0 | 0.00 | 0.00 | 0.00 | 14 | 1011.4 |
| 20260903021503 | 68 | 258 | 8.0 | 17.0 | 0.00 | 0.00 | 0.00 | 14 | 1011.5 |
| 20260903021404 | 68 | 251 | 6.0 | 17.0 | 0.00 | 0.00 | 0.00 | 14 | 1011.4 |
| 20260903021304 | 68 | 251 | 11.0 | 17.0 | 0.00 | 0.00 | 0.00 | 14 | 1011.4 |
| 20260903021203 | 68 | 248 | 11.0 | 17.0 | 0.00 | 0.00 | 0.00 | 14 | 1011.4 |
| 20260903021004 | 69 | 260 | 11.0 | 15.0 | 0.00 | 0.00 | 0.00 | 13 | 1011.4 |
| 20260903020903 | 69 | 258 | 8.0 | 15.0 | 0.00 | 0.00 | 0.00 | 13 | 1011.4 |
| 20260903020804 | 69 | 258 | 8.0 | 15.0 | 0.00 | 0.00 | 0.00 | 13 | 1011.3 |
| 20260903020704 | 69 | 257 | 10.0 | 15.0 | 0.00 | 0.00 | 0.00 | 13 | 1011.5 |
| 20260903020604 | 69 | 264 | 9.0 | 17.0 | 0.00 | 0.00 | 0.00 | 13 | 1011.5 |
| 20260903020504 | 69 | 259 | 8.0 | 17.0 | 0.00 | 0.00 | 0.00 | 13 | 1011.4 |
| 20260903020403 | 69 | 260 | 10.0 | 17.0 | 0.00 | 0.00 | 0.00 | 13 | 1011.3 |
| 20260903020304 | 69 | 258 | 5.0 | 17.0 | 0.00 | 0.00 | 0.00 | 14 | 1011.4 |
| 20260903020204 | 69 | 253 | 7.0 | 17.0 | 0.00 | 0.00 | 0.00 | 13 | 1011.3 |
| 20260903020103 | 70 | 256 | 9.0 | 17.0 | 0.00 | 0.00 | 0.00 | 13 | 1011.4 |
| 20260903020004 | 70 | 243 | 9.0 | 17.0 | 0.00 | 0.00 | 0.00 | 13 | 1011.4 |
| 20260903015904 | 70 | 247 | 11.0 | 17.0 | 0.00 | 0.00 | 0.00 | 12 | 1011.4 |
| 20260903015804 | 70 | 259 | 7.0 | 17.0 | 0.00 | 0.00 | 0.00 | 12 | 1011.3 |
| 20260903015704 | 70 | 259 | 10.0 | 17.0 | 0.00 | 0.00 | 0.00 | 11 | 1011.5 |
| 20260903015604 | 70 | 250 | 13.0 | 17.0 | 0.00 | 0.00 | 0.00 | 11 | 1011.4 |
| 20260903015504 | 71 | 247 | 10.0 | 15.0 | 0.00 | 0.00 | 0.00 | 12 | 1011.4 |
| 20260903015403 | 71 | 246 | 8.0 | 15.0 | 0.00 | 0.00 | 0.00 | 12 | 1011.4 |
| 20260903015306 | 71 | 246 | 7.0 | 15.0 | 0.00 | 0.00 | 0.00 | 12 | 1011.3 |
| 20260903015204 | 71 | 243 | 8.0 | 15.0 | 0.00 | 0.00 | 0.00 | 11 | 1011.4 |
| 20260903015103 | 71 | 241 | 6.0 | 20.0 | 0.00 | 0.00 | 0.00 | 11 | 1011.4 |
| 20260903015004 | 71 | 244 | 7.0 | 20.0 | 0.00 | 0.00 | 0.00 | 10 | 1011.3 |
| 20260903014904 | 71 | 243 | 8.0 | 20.0 | 0.00 | 0.00 | 0.00 | 10 | 1011.4 |
| 20260903014803 | 71 | 237 | 10.0 | 20.0 | 0.00 | 0.00 | 0.00 | 10 | 1011.4 |
| 20260903014704 | 72 | 233 | 8.0 | 20.0 | 0.00 | 0.00 | 0.00 | 10 | 1011.4 |
| 20260903014604 | 72 | 233 | 10.0 | 20.0 | 0.00 | 0.00 | 0.00 | 10 | 1011.3 |
| 20260903014504 | 72 | 233 | 10.0 | 20.0 | 0.00 | 0.00 | 0.00 | 10 | 1011.3 |
| 20260903014404 | 72 | 240 | 8.0 | 20.0 | 0.00 | 0.00 | 0.00 | 10 | 1011.2 |
| 20260903014304 | 72 | 243 | 11.0 | 20.0 | 0.00 | 0.00 | 0.00 | 10 | 1011.3 |
| 20260903013804 | 72 | 233 | 12.0 | 17.0 | 0.00 | 0.00 | 0.00 | 10 | 1011.3 |
| 20260903013703 | 72 | 238 | 11.0 | 19.0 | 0.00 | 0.00 | 0.00 | 10 | 1011.4 |
| 20260903013604 | 72 | 238 | 10.0 | 21.0 | 0.00 | 0.00 | 0.00 | 10 | 1011.4 |
| 20260903013504 | 72 | 237 | 13.0 | 21.0 | 0.00 | 0.00 | 0.00 | 10 | 1011.3 |
| 20260903013404 | 73 | 233 | 8.0 | 21.0 | 0.00 | 0.00 | 0.00 | 10 | 1011.3 |
| 20260903013303 | 73 | 233 | 6.0 | 21.0 | 0.00 | 0.00 | 0.00 | 10 | 1011.3 |
| 20260903013105 | 73 | 237 | 12.0 | 21.0 | 0.00 | 0.00 | 0.00 | 10 | 1011.2 |
| 20260903013004 | 73 | 233 | 12.0 | 21.0 | 0.00 | 0.00 | 0.00 | 10 | 1011.3 |
| 20260903012904 | 73 | 233 | 9.0 | 21.0 | 0.00 | 0.00 | 0.00 | 10 | 1011.3 |
| 20260903012803 | 73 | 239 | 13.0 | 21.0 | 0.00 | 0.00 | 0.00 | 10 | 1011.2 |
| 20260903012704 | 73 | 239 | 13.0 | 21.0 | 0.00 | 0.00 | 0.00 | 10 | 1011.3 |
| 20260903012604 | 73 | 242 | 15.0 | 21.0 | 0.00 | 0.00 | 0.00 | 10 | 1011.3 |
| 20260903012503 | 73 | 245 | 13.0 | 20.0 | 0.00 | 0.00 | 0.00 | 10 | 1011.2 |
| 20260903012404 | 73 | 239 | 8.0 | 20.0 | 0.00 | 0.00 | 0.00 | 10 | 1011.1 |
| 20260903012306 | 73 | 237 | 8.0 | 20.0 | 0.00 | 0.00 | 0.00 | 10 | 1011.4 |
| 20260903012203 | 73 | 237 | 10.0 | 20.0 | 0.00 | 0.00 | 0.00 | 10 | 1011.3 |
| 20260903012104 | 73 | 238 | 11.0 | 20.0 | 0.00 | 0.00 | 0.00 | 10 | 1011.3 |
| 20260903012003 | 73 | 242 | 10.0 | 20.0 | 0.00 | 0.00 | 0.00 | 10 | 1011.3 |
| 20260903011903 | 74 | 247 | 12.0 | 20.0 | 0.00 | 0.00 | 0.00 | 10 | 1011.2 |
| 20260903011804 | 74 | 246 | 12.0 | 20.0 | 0.00 | 0.00 | 0.00 | 10 | 1011.3 |
| 20260903011703 | 74 | 243 | 10.0 | 18.0 | 0.00 | 0.00 | 0.00 | 10 | 1011.2 |
| 20260903011603 | 74 | 245 | 8.0 | 18.0 | 0.00 | 0.00 | 0.00 | 10 | 1011.3 |
| 20260903011504 | 74 | 244 | 8.0 | 18.0 | 0.00 | 0.00 | 0.00 | 10 | 1011.3 |
| 20260903011403 | 74 | 247 | 6.0 | 18.0 | 0.00 | 0.00 | 0.00 | 10 | 1011.2 |
| 20260903011303 | 74 | 252 | 10.0 | 18.0 | 0.00 | 0.00 | 0.00 | 10 | 1011.2 |
| 20260903011204 | 74 | 252 | 11.0 | 19.0 | 0.00 | 0.00 | 0.00 | 10 | 1011.3 |
| 20260903011104 | 74 | 252 | 14.0 | 19.0 | 0.00 | 0.00 | 0.00 | 10 | 1011.3 |
| 20260903011003 | 74 | 253 | 11.0 | 19.0 | 0.00 | 0.00 | 0.00 | 10 | 1011.1 |
| 20260903010904 | 74 | 257 | 11.0 | 19.0 | 0.00 | 0.00 | 0.00 | 10 | 1011.2 |
| 20260903010804 | 75 | 258 | 11.0 | 19.0 | 0.00 | 0.00 | 0.00 | 10 | 1011.2 |
| 20260903010703 | 75 | 257 | 8.0 | 19.0 | 0.00 | 0.00 | 0.00 | 10 | 1011.3 |
| 20260903010604 | 75 | 250 | 8.0 | 19.0 | 0.00 | 0.00 | 0.00 | 10 | 1011.3 |
| 20260903010504 | 75 | 250 | 10.0 | 19.0 | 0.00 | 0.00 | 0.00 | 10 | 1011.3 |
| 20260903010403 | 75 | 246 | 13.0 | 19.0 | 0.00 | 0.00 | 0.00 | 10 | 1011.3 |
| 20260903010304 | 75 | 243 | 12.0 | 19.0 | 0.00 | 0.00 | 0.00 | 10 | 1011.3 |
| 20260903005804 | 74 | 233 | 8.0 | 20.0 | 0.00 | 0.00 | 0.00 | 10 | 1011.3 |
| 20260903005703 | 74 | 235 | 10.0 | 20.0 | 0.00 | 0.00 | 0.00 | 10 | 1011.3 |
| 20260903005603 | 74 | 235 | 10.0 | 20.0 | 0.00 | 0.00 | 0.00 | 10 | 1011.3 |
| 20260903005504 | 74 | 235 | 11.0 | 20.0 | 0.00 | 0.00 | 0.00 | 10 | 1011.3 |
| 20260903005403 | 74 | 235 | 9.0 | 20.0 | 0.00 | 0.00 | 0.00 | 10 | 1011.3 |
| 20260903005306 | 74 | 232 | 8.0 | 20.0 | 0.00 | 0.00 | 0.00 | 10 | 1011.2 |
| 20260903005204 | 75 | 234 | 12.0 | 20.0 | 0.00 | 0.00 | 0.00 | 10 | 1011.3 |
| 20260903005104 | 75 | 232 | 11.0 | 19.0 | 0.00 | 0.00 | 0.00 | 10 | 1011.2 |
| 20260903005003 | 75 | 223 | 14.0 | 18.0 | 0.00 | 0.00 | 0.00 | 10 | 1011.2 |
| 20260903004903 | 75 | 222 | 10.0 | 18.0 | 0.00 | 0.00 | 0.00 | 10 | 1011.2 |
| 20260903004803 | 76 | 222 | 12.0 | 18.0 | 0.00 | 0.00 | 0.00 | 10 | 1011.2 |
| 20260903004403 | 76 | 233 | 8.0 | 15.0 | 0.00 | 0.00 | 0.00 | 10 | 1011.2 |
| 20260903004304 | 76 | 233 | 7.0 | 15.0 | 0.00 | 0.00 | 0.00 | 10 | 1011.2 |
| 20260903004204 | 76 | 229 | 8.0 | 15.0 | 0.00 | 0.00 | 0.00 | 10 | 1011.2 |
| 20260903004104 | 76 | 231 | 8.0 | 15.0 | 0.00 | 0.00 | 0.00 | 10 | 1011.3 |
| 20260903004004 | 76 | 235 | 6.0 | 17.0 | 0.00 | 0.00 | 0.00 | 10 | 1011.3 |
| 20260903003903 | 76 | 234 | 10.0 | 17.0 | 0.00 | 0.00 | 0.00 | 10 | 1011.3 |
| 20260903003803 | 76 | 232 | 9.0 | 17.0 | 0.00 | 0.00 | 0.00 | 10 | 1011.3 |
| 20260903003704 | 76 | 228 | 8.0 | 17.0 | 0.00 | 0.00 | 0.00 | 10 | 1011.3 |
| 20260903003604 | 75 | 222 | 8.0 | 17.0 | 0.00 | 0.00 | 0.00 | 10 | 1011.1 |
| 20260903003503 | 75 | 223 | 8.0 | 17.0 | 0.00 | 0.00 | 0.00 | 10 | 1011.3 |
| 20260903003404 | 75 | 228 | 8.0 | 17.0 | 0.00 | 0.00 | 0.00 | 10 | 1011.3 |
| 20260903003003 | 76 | 233 | 14.0 | 17.0 | 0.00 | 0.00 | 0.00 | 10 | 1011.3 |
| 20260903002903 | 76 | 239 | 9.0 | 17.0 | 0.00 | 0.00 | 0.00 | 10 | 1011.3 |
| 20260903002804 | 76 | 248 | 8.0 | 17.0 | 0.00 | 0.00 | 0.00 | 10 | 1011.3 |
| 20260903002703 | 76 | 251 | 8.0 | 17.0 | 0.00 | 0.00 | 0.00 | 10 | 1011.3 |
| 20260903002603 | 76 | 253 | 11.0 | 17.0 | 0.00 | 0.00 | 0.00 | 10 | 1011.3 |
| 20260903002504 | 76 | 249 | 10.0 | 17.0 | 0.00 | 0.00 | 0.00 | 10 | 1011.4 |
| 20260903002404 | 77 | 244 | 9.0 | 17.0 | 0.00 | 0.00 | 0.00 | 10 | 1011.3 |
| 20260903002306 | 77 | 248 | 10.0 | 17.0 | 0.00 | 0.00 | 0.00 | 10 | 1011.3 |
| 20260903002204 | 77 | 251 | 9.0 | 17.0 | 0.00 | 0.00 | 0.00 | 10 | 1011.3 |
| 20260903002103 | 76 | 256 | 9.0 | 17.0 | 0.00 | 0.00 | 0.00 | 10 | 1011.3 |
| 20260903002004 | 76 | 254 | 10.0 | 17.0 | 0.00 | 0.00 | 0.00 | 10 | 1011.3 |
| 20260903001904 | 76 | 243 | 9.0 | 17.0 | 0.00 | 0.00 | 0.00 | 10 | 1011.2 |
| 20260903001303 | 75 | 228 | 10.0 | 21.0 | 0.00 | 0.00 | 0.00 | 10 | 1011.3 |
| 20260903001204 | 75 | 233 | 5.0 | 21.0 | 0.00 | 0.00 | 0.00 | 10 | 1011.2 |
| 20260903001103 | 76 | 233 | 12.0 | 21.0 | 0.00 | 0.00 | 0.00 | 10 | 1011.3 |
| 20260903001003 | 76 | 233 | 13.0 | 21.0 | 0.00 | 0.00 | 0.00 | 10 | 1011.3 |
| 20260903000903 | 76 | 236 | 11.0 | 21.0 | 0.00 | 0.00 | 0.00 | 10 | 1011.3 |
| 20260903000803 | 76 | 237 | 9.0 | 21.0 | 0.00 | 0.00 | 0.00 | 10 | 1011.2 |
| 20260903000704 | 75 | 239 | 8.0 | 21.0 | 0.00 | 0.00 | 0.00 | 10 | 1011.3 |
| 20260903000603 | 75 | 239 | 7.0 | 21.0 | 0.00 | 0.00 | 0.00 | 10 | 1011.3 |
| 20260903000504 | 76 | 239 | 11.0 | 21.0 | 0.00 | 0.00 | 0.00 | 10 | 1011.3 |
| 20260903000403 | 76 | 240 | 16.0 | 21.0 | 0.00 | 0.00 | 0.00 | 10 | 1011.2 |
| 20260903000304 | 76 | 240 | 11.0 | 20.0 | 0.00 | 0.00 | 0.00 | 10 | 1011.2 |
| 20260903000103 | 76 | 234 | 11.0 | 19.0 | 0.00 | 0.00 | 0.00 | 10 | 1011.3 |
| 20260903000003 | 76 | 234 | 11.0 | 19.0 | 0.00 | 0.00 | 0.00 | 10 | 1011.4 |
| 20260902235904 | 76 | 236 | 11.0 | 19.0 | 0.00 | 0.00 | 0.00 | 10 | 1011.2 |
| 20260902235804 | 76 | 241 | 10.0 | 19.0 | 0.00 | 0.00 | 0.00 | 10 | 1011.3 |
| 20260902235703 | 76 | 239 | 8.0 | 19.0 | 0.00 | 0.00 | 0.00 | 10 | 1011.2 |
| 20260902235603 | 76 | 239 | 6.0 | 19.0 | 0.00 | 0.00 | 0.00 | 10 | 1011.3 |
| 20260902235504 | 76 | 239 | 13.0 | 19.0 | 0.00 | 0.00 | 0.00 | 10 | 1011.2 |
| 20260902235404 | 76 | 239 | 11.0 | 19.0 | 0.00 | 0.00 | 0.00 | 10 | 1011.3 |
| 20260902235305 | 76 | 240 | 13.0 | 19.0 | 0.00 | 0.00 | 0.00 | 10 | 1011.3 |
| 20260902235204 | 76 | 237 | 11.0 | 17.0 | 0.00 | 0.00 | 0.00 | 10 | 1011.2 |
| 20260902235104 | 76 | 233 | 9.0 | 17.0 | 0.00 | 0.00 | 0.00 | 10 | 1011.3 |
| 20260902235003 | 76 | 237 | 11.0 | 17.0 | 0.00 | 0.00 | 0.00 | 10 | 1011.3 |
| 20260902234904 | 76 | 236 | 8.0 | 17.0 | 0.00 | 0.00 | 0.00 | 10 | 1011.3 |
| 20260902234804 | 76 | 237 | 11.0 | 21.0 | 0.00 | 0.00 | 0.00 | 10 | 1011.3 |
| 20260902234703 | 76 | 242 | 11.0 | 21.0 | 0.00 | 0.00 | 0.00 | 10 | 1011.3 |
| 20260902234604 | 76 | 246 | 11.0 | 21.0 | 0.00 | 0.00 | 0.00 | 10 | 1011.2 |
| 20260902234504 | 76 | 247 | 11.0 | 21.0 | 0.00 | 0.00 | 0.00 | 10 | 1011.3 |
| 20260902234003 | 76 | 251 | 4.0 | 21.0 | 0.00 | 0.00 | 0.00 | 10 | 1011.3 |
| 20260902233904 | 76 | 250 | 11.0 | 21.0 | 0.00 | 0.00 | 0.00 | 10 | 1011.3 |
| 20260902233804 | 76 | 254 | 15.0 | 21.0 | 0.00 | 0.00 | 0.00 | 10 | 1011.3 |
| 20260902233703 | 76 | 260 | 8.0 | 17.0 | 0.00 | 0.00 | 0.00 | 10 | 1011.3 |
| 20260902233604 | 76 | 267 | 10.0 | 17.0 | 0.00 | 0.00 | 0.00 | 10 | 1011.3 |
| 20260902233503 | 76 | 268 | 8.0 | 17.0 | 0.00 | 0.00 | 0.00 | 10 | 1011.3 |
| 20260902233404 | 76 | 264 | 5.0 | 17.0 | 0.00 | 0.00 | 0.00 | 10 | 1011.3 |
| 20260902233303 | 76 | 258 | 8.0 | 17.0 | 0.00 | 0.00 | 0.00 | 10 | 1011.3 |
| 20260902233203 | 76 | 257 | 11.0 | 17.0 | 0.00 | 0.00 | 0.00 | 10 | 1011.3 |
| 20260902233104 | 76 | 257 | 10.0 | 17.0 | 0.00 | 0.00 | 0.00 | 10 | 1011.3 |
| 20260902233004 | 76 | 264 | 10.0 | 17.0 | 0.00 | 0.00 | 0.00 | 10 | 1011.4 |
| 20260902232903 | 76 | 261 | 13.0 | 17.0 | 0.00 | 0.00 | 0.00 | 10 | 1011.2 |
| 20260902232803 | 76 | 245 | 9.0 | 17.0 | 0.00 | 0.00 | 0.00 | 10 | 1011.2 |
| 20260902232703 | 76 | 237 | 11.0 | 17.0 | 0.00 | 0.00 | 0.00 | 10 | 1011.2 |
| 20260902232604 | 76 | 226 | 5.0 | 17.0 | 0.00 | 0.00 | 0.00 | 10 | 1011.1 |
| 20260902232503 | 76 | 226 | 4.0 | 17.0 | 0.00 | 0.00 | 0.00 | 10 | 1011.3 |
| 20260902232403 | 76 | 227 | 8.0 | 20.0 | 0.00 | 0.00 | 0.00 | 10 | 1011.2 |
| 20260902232306 | 76 | 228 | 11.0 | 20.0 | 0.00 | 0.00 | 0.00 | 10 | 1011.3 |
| 20260902232204 | 76 | 244 | 11.0 | 20.0 | 0.00 | 0.00 | 0.00 | 10 | 1011.3 |
| 20260902231706 | 76 | 220 | 8.0 | 21.0 | 0.00 | 0.00 | 0.00 | 10 | 1011.2 |
| 20260902231006 | 76 | 234 | 14.0 | 21.0 | 0.00 | 0.00 | 0.00 | 10 | 1011.2 |
| 20260902230906 | 76 | 230 | 13.0 | 20.0 | 0.00 | 0.00 | 0.00 | 10 | 1011.3 |
| 20260902230806 | 76 | 229 | 10.0 | 20.0 | 0.00 | 0.00 | 0.00 | 10 | 1011.3 |
| 20260902230706 | 77 | 231 | 8.0 | 20.0 | 0.00 | 0.00 | 0.00 | 10 | 1011.3 |
| 20260902230606 | 76 | 230 | 11.0 | 20.0 | 0.00 | 0.00 | 0.00 | 10 | 1011.3 |
| 20260902230506 | 76 | 230 | 13.0 | 20.0 | 0.00 | 0.00 | 0.00 | 10 | 1011.4 |
| 20260902225906 | 78 | 233 | 11.0 | 18.0 | 0.00 | 0.00 | 0.00 | 10 | 1011.4 |
| 20260902225806 | 77 | 229 | 10.0 | 18.0 | 0.00 | 0.00 | 0.00 | 10 | 1011.4 |
| 20260902225706 | 77 | 225 | 9.0 | 18.0 | 0.00 | 0.00 | 0.00 | 10 | 1011.5 |
| 20260902225606 | 77 | 230 | 9.0 | 18.0 | 0.00 | 0.00 | 0.00 | 10 | 1011.5 |
| 20260902225506 | 77 | 237 | 7.0 | 18.0 | 0.00 | 0.00 | 0.00 | 10 | 1011.4 |
| 20260902225406 | 77 | 238 | 5.0 | 18.0 | 0.00 | 0.00 | 0.00 | 10 | 1011.4 |
| 20260902225306 | 77 | 238 | 8.0 | 18.0 | 0.00 | 0.00 | 0.00 | 10 | 1011.5 |
| 20260902225206 | 77 | 230 | 8.0 | 18.0 | 0.00 | 0.00 | 0.00 | 10 | 1011.4 |
| 20260902225106 | 78 | 231 | 9.0 | 18.0 | 0.00 | 0.00 | 0.00 | 10 | 1011.5 |
| 20260902225007 | 78 | 232 | 11.0 | 18.0 | 0.00 | 0.00 | 0.00 | 10 | 1011.6 |
| 20260902224906 | 78 | 231 | 12.0 | 18.0 | 0.00 | 0.00 | 0.00 | 10 | 1011.6 |
| 20260902224806 | 78 | 239 | 9.0 | 19.0 | 0.00 | 0.00 | 0.00 | 10 | 1011.6 |
| 20260902224705 | 78 | 247 | 11.0 | 19.0 | 0.00 | 0.00 | 0.00 | 10 | 1011.5 |
| 20260902224606 | 77 | 245 | 11.0 | 23.0 | 0.00 | 0.00 | 0.00 | 10 | 1011.4 |
| 20260902224506 | 77 | 237 | 11.0 | 23.0 | 0.00 | 0.00 | 0.00 | 10 | 1011.5 |
| 20260902224206 | 77 | 249 | 10.0 | 23.0 | 0.00 | 0.00 | 0.00 | 10 | 1011.5 |
| 20260902224106 | 77 | 253 | 4.0 | 23.0 | 0.00 | 0.00 | 0.00 | 10 | 1011.5 |
| 20260902224006 | 78 | 259 | 11.0 | 23.0 | 0.00 | 0.00 | 0.00 | 10 | 1011.5 |
| 20260902223907 | 78 | 267 | 12.0 | 23.0 | 0.00 | 0.00 | 0.00 | 10 | 1011.6 |
| 20260902223806 | 78 | 268 | 8.0 | 23.0 | 0.00 | 0.00 | 0.00 | 10 | 1011.6 |
| 20260902223707 | 78 | 264 | 6.0 | 23.0 | 0.00 | 0.00 | 0.00 | 10 | 1011.5 |
| 20260902223606 | 78 | 259 | 11.0 | 20.0 | 0.00 | 0.00 | 0.00 | 10 | 1011.6 |
| 20260902223506 | 78 | 258 | 8.0 | 20.0 | 0.00 | 0.00 | 0.00 | 10 | 1011.5 |
| 20260902223406 | 78 | 255 | 14.0 | 20.0 | 0.00 | 0.00 | 0.00 | 10 | 1011.6 |
| 20260902223305 | 78 | 263 | 9.0 | 20.0 | 0.00 | 0.00 | 0.00 | 10 | 1011.6 |
| 20260902223206 | 78 | 257 | 12.0 | 20.0 | 0.00 | 0.00 | 0.00 | 10 | 1011.5 |
| 20260902223106 | 78 | 255 | 5.0 | 18.0 | 0.00 | 0.00 | 0.00 | 10 | 1011.6 |
| 20260902223006 | 78 | 240 | 5.0 | 18.0 | 0.00 | 0.00 | 0.00 | 10 | 1011.6 |
| 20260902222906 | 78 | 228 | 9.0 | 18.0 | 0.00 | 0.00 | 0.00 | 10 | 1011.6 |
| 20260902222806 | 78 | 226 | 9.0 | 18.0 | 0.00 | 0.00 | 0.00 | 10 | 1011.5 |
| 20260902222706 | 78 | 220 | 13.0 | 22.0 | 0.00 | 0.00 | 0.00 | 10 | 1011.6 |
| 20260902222606 | 79 | 228 | 10.0 | 22.0 | 0.00 | 0.00 | 0.00 | 10 | 1011.6 |
| 20260902222506 | 78 | 228 | 8.0 | 22.0 | 0.00 | 0.00 | 0.00 | 10 | 1011.5 |
| 20260902222406 | 78 | 232 | 3.0 | 22.0 | 0.00 | 0.00 | 0.00 | 10 | 1011.5 |
| 20260902222306 | 78 | 232 | 3.0 | 22.0 | 0.00 | 0.00 | 0.00 | 10 | 1011.6 |
| 20260902222206 | 78 | 231 | 6.0 | 22.0 | 0.00 | 0.00 | 0.00 | 10 | 1011.6 |
| 20260902222106 | 78 | 230 | 6.0 | 22.0 | 0.00 | 0.00 | 0.00 | 10 | 1011.7 |
| 20260902222006 | 78 | 229 | 8.0 | 22.0 | 0.00 | 0.00 | 0.00 | 10 | 1011.7 |
| 20260902221806 | 78 | 229 | 11.0 | 22.0 | 0.00 | 0.00 | 0.00 | 10 | 1011.7 |
| 20260902221705 | 78 | 229 | 14.0 | 22.0 | 0.00 | 0.00 | 0.00 | 10 | 1011.6 |
| 20260902221606 | 78 | 233 | 8.0 | 17.0 | 0.00 | 0.00 | 0.00 | 10 | 1011.6 |
| 20260902221506 | 78 | 238 | 8.0 | 17.0 | 0.00 | 0.00 | 0.00 | 10 | 1011.5 |
| 20260902221406 | 78 | 245 | 8.0 | 17.0 | 0.00 | 0.00 | 0.00 | 10 | 1011.6 |
| 20260902220906 | 79 | 253 | 8.0 | 18.0 | 0.00 | 0.00 | 0.00 | 10 | 1011.6 |
| 20260902220806 | 79 | 251 | 9.0 | 21.0 | 0.00 | 0.00 | 0.00 | 10 | 1011.6 |
| 20260902220706 | 79 | 249 | 8.0 | 21.0 | 0.00 | 0.00 | 0.00 | 10 | 1011.6 |
| 20260902220606 | 79 | 246 | 10.0 | 21.0 | 0.00 | 0.00 | 0.00 | 10 | 1011.7 |
| 20260902220506 | 79 | 237 | 8.0 | 21.0 | 0.00 | 0.00 | 0.00 | 10 | 1011.6 |
| 20260902220406 | 78 | 233 | 8.0 | 21.0 | 0.00 | 0.00 | 0.00 | 10 | 1011.7 |
| 20260902215806 | 77 | 199 | 11.0 | 21.0 | 0.00 | 0.00 | 0.00 | 10 | 1011.6 |
| 20260902215706 | 77 | 187 | 8.0 | 21.0 | 0.00 | 0.00 | 0.00 | 10 | 1011.7 |
| 20260902215606 | 77 | 179 | 10.0 | 22.0 | 0.00 | 0.00 | 0.00 | 10 | 1011.8 |
| 20260902215506 | 77 | 191 | 8.0 | 22.0 | 0.00 | 0.00 | 0.00 | 10 | 1011.8 |
| 20260902215406 | 77 | 200 | 11.0 | 23.0 | 0.00 | 0.00 | 0.00 | 10 | 1011.8 |
| 20260902215306 | 77 | 219 | 11.0 | 23.0 | 0.00 | 0.00 | 0.00 | 10 | 1011.8 |
| 20260902214806 | 77 | 261 | 11.0 | 23.0 | 0.00 | 0.00 | 0.00 | 10 | 1011.8 |
| 20260902214707 | 77 | 260 | 11.0 | 23.0 | 0.00 | 0.00 | 0.00 | 10 | 1011.8 |
| 20260902214606 | 77 | 256 | 13.0 | 23.0 | 0.00 | 0.00 | 0.00 | 10 | 1011.8 |
| 20260902214506 | 77 | 244 | 13.0 | 23.0 | 0.00 | 0.00 | 0.00 | 10 | 1011.8 |
| 20260902214406 | 77 | 223 | 8.0 | 23.0 | 0.00 | 0.00 | 0.00 | 10 | 1011.7 |
| 20260902214306 | 77 | 220 | 12.0 | 23.0 | 0.00 | 0.00 | 0.00 | 10 | 1011.8 |
| 20260902214206 | 77 | 215 | 11.0 | 23.0 | 0.00 | 0.00 | 0.00 | 10 | 1011.8 |
| 20260902214106 | 77 | 213 | 10.0 | 23.0 | 0.00 | 0.00 | 0.00 | 10 | 1011.8 |
| 20260902214006 | 77 | 217 | 14.0 | 23.0 | 0.00 | 0.00 | 0.00 | 10 | 1011.8 |
| 20260902213906 | 77 | 217 | 9.0 | 23.0 | 0.00 | 0.00 | 0.00 | 10 | 1011.9 |
| 20260902213806 | 77 | 217 | 9.0 | 23.0 | 0.00 | 0.00 | 0.00 | 10 | 1011.8 |
| 20260902213706 | 77 | 216 | 15.0 | 23.0 | 0.00 | 0.00 | 0.00 | 10 | 1011.9 |
| 20260902213606 | 78 | 216 | 12.0 | 21.0 | 0.00 | 0.00 | 0.00 | 10 | 1011.8 |
| 20260902213506 | 78 | 214 | 12.0 | 21.0 | 0.00 | 0.00 | 0.00 | 10 | 1011.8 |
| 20260902213406 | 78 | 219 | 10.0 | 21.0 | 0.00 | 0.00 | 0.00 | 10 | 1011.9 |
| 20260902213306 | 78 | 222 | 11.0 | 21.0 | 0.00 | 0.00 | 0.00 | 10 | 1011.9 |
| 20260902213206 | 78 | 225 | 13.0 | 21.0 | 0.00 | 0.00 | 0.00 | 10 | 1011.8 |
| 20260902213106 | 77 | 225 | 9.0 | 18.0 | 0.00 | 0.00 | 0.00 | 10 | 1011.8 |
| 20260902213006 | 77 | 230 | 9.0 | 18.0 | 0.00 | 0.00 | 0.00 | 10 | 1011.8 |
| 20260902212906 | 77 | 230 | 11.0 | 19.0 | 0.00 | 0.00 | 0.00 | 10 | 1011.8 |
| 20260902212806 | 77 | 231 | 4.0 | 19.0 | 0.00 | 0.00 | 0.00 | 10 | 1011.8 |
| 20260902212706 | 77 | 223 | 4.0 | 19.0 | 0.00 | 0.00 | 0.00 | 10 | 1011.8 |
| 20260902212605 | 77 | 222 | 1.0 | 19.0 | 0.00 | 0.00 | 0.00 | 10 | 1011.9 |
| 20260902212506 | 76 | 223 | 4.0 | 19.0 | 0.00 | 0.00 | 0.00 | 10 | 1011.8 |
| 20260902212406 | 77 | 228 | 6.0 | 19.0 | 0.00 | 0.00 | 0.00 | 10 | 1012.0 |
| 20260902212306 | 76 | 228 | 9.0 | 19.0 | 0.00 | 0.00 | 0.00 | 10 | 1011.9 |
| 20260902212205 | 76 | 231 | 8.0 | 19.0 | 0.00 | 0.00 | 0.00 | 10 | 1011.8 |
| 20260902212106 | 76 | 235 | 10.0 | 19.0 | 0.00 | 0.00 | 0.00 | 10 | 1011.8 |
| 20260902212006 | 77 | 227 | 11.0 | 19.0 | 0.00 | 0.00 | 0.00 | 10 | 1011.9 |
| 20260902211906 | 77 | 235 | 8.0 | 17.0 | 0.00 | 0.00 | 0.00 | 10 | 1011.8 |
| 20260902211805 | 77 | 234 | 10.0 | 17.0 | 0.00 | 0.00 | 0.00 | 10 | 1011.9 |
| 20260902211706 | 77 | 241 | 8.0 | 15.0 | 0.00 | 0.00 | 0.00 | 10 | 1011.9 |
| 20260902211606 | 76 | 237 | 9.0 | 19.0 | 0.00 | 0.00 | 0.00 | 10 | 1011.9 |
| 20260902211406 | 76 | 233 | 4.0 | 19.0 | 0.00 | 0.00 | 0.00 | 10 | 1012.0 |
| 20260902211306 | 76 | 231 | 4.0 | 19.0 | 0.00 | 0.00 | 0.00 | 10 | 1011.9 |
| 20260902211206 | 76 | 237 | 4.0 | 19.0 | 0.00 | 0.00 | 0.00 | 10 | 1011.9 |
| 20260902211106 | 76 | 241 | 5.0 | 19.0 | 0.00 | 0.00 | 0.00 | 10 | 1012.0 |
| 20260902211006 | 76 | 252 | 8.0 | 19.0 | 0.00 | 0.00 | 0.00 | 10 | 1012.0 |
| 20260902210905 | 76 | 253 | 4.0 | 19.0 | 0.00 | 0.00 | 0.00 | 10 | 1012.0 |
| 20260902210806 | 76 | 242 | 10.0 | 19.0 | 0.00 | 0.00 | 0.00 | 10 | 1011.9 |
| 20260902210706 | 76 | 246 | 11.0 | 19.0 | 0.00 | 0.00 | 0.00 | 10 | 1011.8 |
| 20260902210606 | 76 | 252 | 13.0 | 19.0 | 0.00 | 0.00 | 0.00 | 10 | 1012.0 |
| 20260902210405 | 77 | 251 | 8.0 | 17.0 | 0.00 | 0.00 | 0.00 | 10 | 1011.9 |
| 20260902210306 | 77 | 268 | 8.0 | 17.0 | 0.00 | 0.00 | 0.00 | 10 | 1012.0 |
| 20260902210206 | 76 | 349 | 10.0 | 17.0 | 0.00 | 0.00 | 0.00 | 10 | 1011.8 |
| 20260902210106 | 76 | 128 | 9.0 | 17.0 | 0.00 | 0.00 | 0.00 | 10 | 1011.8 |
| 20260902210005 | 76 | 158 | 4.0 | 15.0 | 0.00 | 0.00 | 0.00 | 10 | 1011.8 |
| 20260902205906 | 76 | 162 | 5.0 | 15.0 | 0.00 | 0.00 | 0.00 | 10 | 1011.8 |
| 20260902205806 | 76 | 181 | 8.0 | 15.0 | 0.00 | 0.00 | 0.00 | 10 | 1011.8 |
| 20260902205706 | 75 | 182 | 4.0 | 15.0 | 0.00 | 0.00 | 0.00 | 10 | 1011.9 |
| 20260902205606 | 75 | 190 | 5.0 | 15.0 | 0.00 | 0.00 | 0.00 | 10 | 1012.0 |
| 20260902205506 | 75 | 198 | 8.0 | 17.0 | 0.00 | 0.00 | 0.00 | 10 | 1011.9 |
| 20260902205406 | 75 | 221 | 8.0 | 17.0 | 0.00 | 0.00 | 0.00 | 10 | 1011.9 |
| 20260902205306 | 75 | 225 | 4.0 | 17.0 | 0.00 | 0.00 | 0.00 | 10 | 1011.9 |
| 20260902205205 | 75 | 229 | 8.0 | 17.0 | 0.00 | 0.00 | 0.00 | 10 | 1011.8 |
| 20260902205106 | 75 | 238 | 10.0 | 17.0 | 0.00 | 0.00 | 0.00 | 10 | 1011.9 |
| 20260902205006 | 75 | 241 | 10.0 | 17.0 | 0.00 | 0.00 | 0.00 | 10 | 1012.0 |
| 20260902204906 | 75 | 250 | 8.0 | 17.0 | 0.00 | 0.00 | 0.00 | 10 | 1012.0 |
| 20260902204806 | 75 | 254 | 6.0 | 17.0 | 0.00 | 0.00 | 0.00 | 10 | 1011.9 |
| 20260902204706 | 75 | 247 | 6.0 | 17.0 | 0.00 | 0.00 | 0.00 | 10 | 1012.0 |
| 20260902204606 | 75 | 249 | 5.0 | 17.0 | 0.00 | 0.00 | 0.00 | 10 | 1012.1 |
| 20260902204506 | 75 | 253 | 11.0 | 17.0 | 0.00 | 0.00 | 0.00 | 10 | 1012.0 |
| 20260902204406 | 75 | 259 | 7.0 | 17.0 | 0.00 | 0.00 | 0.00 | 10 | 1012.0 |
| 20260902204305 | 75 | 261 | 8.0 | 17.0 | 0.00 | 0.00 | 0.00 | 10 | 1012.0 |
| 20260902204206 | 75 | 263 | 8.0 | 17.0 | 0.00 | 0.00 | 0.00 | 10 | 1011.9 |
| 20260902204106 | 75 | 256 | 12.0 | 17.0 | 0.00 | 0.00 | 0.00 | 10 | 1012.1 |
| 20260902204006 | 75 | 261 | 3.0 | 15.0 | 0.00 | 0.00 | 0.00 | 10 | 1012.0 |
| 20260902203906 | 75 | 263 | 4.0 | 17.0 | 0.00 | 0.00 | 0.00 | 10 | 1012.0 |
| 20260902203807 | 75 | 261 | 7.0 | 17.0 | 0.00 | 0.00 | 0.00 | 10 | 1012.0 |
| 20260902203706 | 76 | 269 | 10.0 | 17.0 | 0.00 | 0.00 | 0.00 | 10 | 1012.0 |
| 20260902203606 | 76 | 262 | 5.0 | 17.0 | 0.00 | 0.00 | 0.00 | 10 | 1012.1 |
| 20260902203505 | 76 | 258 | 6.0 | 17.0 | 0.00 | 0.00 | 0.00 | 10 | 1012.1 |
| 20260902203406 | 76 | 244 | 3.0 | 17.0 | 0.00 | 0.00 | 0.00 | 10 | 1012.1 |
| 20260902203106 | 76 | 252 | 5.0 | 17.0 | 0.00 | 0.00 | 0.00 | 10 | 1012.1 |
| 20260902203005 | 76 | 245 | 4.0 | 17.0 | 0.00 | 0.00 | 0.00 | 10 | 1012.2 |
| 20260902202906 | 76 | 222 | 11.0 | 17.0 | 0.00 | 0.00 | 0.00 | 10 | 1012.2 |
| 20260902202806 | 76 | 224 | 8.0 | 17.0 | 0.00 | 0.00 | 0.00 | 10 | 1012.2 |
| 20260902202706 | 76 | 202 | 4.0 | 17.0 | 0.00 | 0.00 | 0.00 | 10 | 1012.3 |
| 20260902202606 | 76 | 206 | 6.0 | 17.0 | 0.00 | 0.00 | 0.00 | 10 | 1012.1 |
| 20260902202506 | 76 | 217 | 4.0 | 15.0 | 0.00 | 0.00 | 0.00 | 10 | 1012.2 |
| 20260902202406 | 75 | 227 | 4.0 | 17.0 | 0.00 | 0.00 | 0.00 | 10 | 1012.2 |
| 20260902202306 | 75 | 238 | 8.0 | 17.0 | 0.00 | 0.00 | 0.00 | 10 | 1012.2 |
| 20260902202206 | 75 | 236 | 8.0 | 17.0 | 0.00 | 0.00 | 0.00 | 10 | 1012.2 |
| 20260902202105 | 75 | 231 | 5.0 | 17.0 | 0.00 | 0.00 | 0.00 | 10 | 1012.3 |
| 20260902202006 | 75 | 234 | 4.0 | 17.0 | 0.00 | 0.00 | 0.00 | 10 | 1012.4 |
| 20260902201806 | 75 | 252 | 4.0 | 17.0 | 0.00 | 0.00 | 0.00 | 10 | 1012.3 |
| 20260902201705 | 75 | 259 | 5.0 | 17.0 | 0.00 | 0.00 | 0.00 | 10 | 1012.3 |
| 20260902201606 | 76 | 253 | 11.0 | 17.0 | 0.00 | 0.00 | 0.00 | 10 | 1012.2 |
| 20260902201506 | 76 | 250 | 12.0 | 17.0 | 0.00 | 0.00 | 0.00 | 10 | 1012.3 |
| 20260902201406 | 77 | 234 | 8.0 | 17.0 | 0.00 | 0.00 | 0.00 | 10 | 1012.2 |
| 20260902201205 | 76 | 172 | 4.0 | 17.0 | 0.00 | 0.00 | 0.00 | 10 | 1012.3 |
| 20260902201106 | 76 | 165 | 7.0 | 17.0 | 0.00 | 0.00 | 0.00 | 10 | 1012.3 |
| 20260902201006 | 76 | 146 | 4.0 | 10.0 | 0.00 | 0.00 | 0.00 | 10 | 1012.3 |
| 20260902200906 | 76 | 140 | 4.0 | 14.0 | 0.00 | 0.00 | 0.00 | 10 | 1012.2 |
| 20260902200806 | 76 | 131 | 4.0 | 14.0 | 0.00 | 0.00 | 0.00 | 10 | 1012.3 |
| 20260902200705 | 75 | 130 | 6.0 | 14.0 | 0.00 | 0.00 | 0.00 | 10 | 1012.2 |
| 20260902200606 | 75 | 136 | 6.0 | 14.0 | 0.00 | 0.00 | 0.00 | 10 | 1012.3 |
| 20260902200506 | 75 | 153 | 6.0 | 14.0 | 0.00 | 0.00 | 0.00 | 10 | 1012.2 |
| 20260902200406 | 75 | 308 | 6.0 | 14.0 | 0.00 | 0.00 | 0.00 | 10 | 1012.3 |
| 20260902200206 | 75 | 317 | 6.0 | 15.0 | 0.00 | 0.00 | 0.00 | 10 | 1012.3 |
| 20260902200106 | 75 | 305 | 6.0 | 17.0 | 0.00 | 0.00 | 0.00 | 10 | 1012.3 |
| 20260902200006 | 75 | 306 | 9.0 | 18.0 | 0.00 | 0.00 | 0.00 | 10 | 1012.3 |
| 20260902195906 | 74 | 309 | 5.0 | 18.0 | 0.00 | 0.00 | 0.00 | 10 | 1012.4 |
| 20260902195806 | 74 | 297 | 3.0 | 18.0 | 0.00 | 0.00 | 0.00 | 10 | 1012.3 |
| 20260902195707 | 74 | 294 | 3.0 | 18.0 | 0.00 | 0.00 | 0.00 | 10 | 1012.3 |
| 20260902195606 | 74 | 286 | 5.0 | 18.0 | 0.00 | 0.00 | 0.00 | 10 | 1012.4 |
| 20260902195506 | 74 | 287 | 4.0 | 18.0 | 0.00 | 0.00 | 0.00 | 10 | 1012.4 |
| 20260902195406 | 74 | 273 | 8.0 | 18.0 | 0.00 | 0.00 | 0.00 | 10 | 1012.4 |
| 20260902195206 | 74 | 258 | 11.0 | 18.0 | 0.00 | 0.00 | 0.00 | 10 | 1012.4 |
| 20260902195105 | 74 | 265 | 10.0 | 18.0 | 0.00 | 0.00 | 0.00 | 10 | 1012.4 |
| 20260902195006 | 74 | 263 | 10.0 | 18.0 | 0.00 | 0.00 | 0.00 | 10 | 1012.5 |
| 20260902194906 | 74 | 255 | 12.0 | 18.0 | 0.00 | 0.00 | 0.00 | 10 | 1012.4 |
| 20260902194806 | 74 | 257 | 9.0 | 18.0 | 0.00 | 0.00 | 0.00 | 10 | 1012.5 |
| 20260902194406 | 74 | 254 | 9.0 | 17.0 | 0.00 | 0.00 | 0.00 | 10 | 1012.6 |
| 20260902194306 | 74 | 240 | 8.0 | 17.0 | 0.00 | 0.00 | 0.00 | 10 | 1012.6 |
| 20260902194206 | 74 | 234 | 6.0 | 17.0 | 0.00 | 0.00 | 0.00 | 10 | 1012.4 |
| 20260902194106 | 74 | 238 | 4.0 | 17.0 | 0.00 | 0.00 | 0.00 | 10 | 1012.5 |
| 20260902194006 | 74 | 243 | 7.0 | 17.0 | 0.00 | 0.00 | 0.00 | 10 | 1012.5 |
| 20260902193906 | 74 | 249 | 7.0 | 17.0 | 0.00 | 0.00 | 0.00 | 10 | 1012.6 |
| 20260902193806 | 74 | 247 | 8.0 | 17.0 | 0.00 | 0.00 | 0.00 | 10 | 1012.6 |
| 20260902193705 | 74 | 245 | 11.0 | 17.0 | 0.00 | 0.00 | 0.00 | 10 | 1012.6 |
| 20260902193606 | 74 | 250 | 4.0 | 16.0 | 0.00 | 0.00 | 0.00 | 10 | 1012.5 |
| 20260902193506 | 74 | 251 | 7.0 | 16.0 | 0.00 | 0.00 | 0.00 | 10 | 1012.6 |
| 20260902193406 | 74 | 261 | 10.0 | 16.0 | 0.00 | 0.00 | 0.00 | 10 | 1012.7 |
| 20260902193306 | 74 | 269 | 9.0 | 16.0 | 0.00 | 0.00 | 0.00 | 10 | 1012.6 |
| 20260902193206 | 74 | 288 | 11.0 | 16.0 | 0.00 | 0.00 | 0.00 | 10 | 1012.6 |
| 20260902193106 | 74 | 282 | 4.0 | 16.0 | 0.00 | 0.00 | 0.00 | 10 | 1012.6 |
| 20260902193006 | 73 | 282 | 6.0 | 16.0 | 0.00 | 0.00 | 0.00 | 10 | 1012.6 |
| 20260902192906 | 74 | 277 | 9.0 | 16.0 | 0.00 | 0.00 | 0.00 | 10 | 1012.6 |
| 20260902192806 | 73 | 294 | 8.0 | 16.0 | 0.00 | 0.00 | 0.00 | 10 | 1012.5 |
| 20260902192606 | 73 | 311 | 4.0 | 10.0 | 0.00 | 0.00 | 0.00 | 10 | 1012.5 |
| 20260902192506 | 72 | 315 | 3.0 | 5.0 | 0.00 | 0.00 | 0.00 | 13 | 1012.6 |
| 20260902192406 | 72 | 314 | 3.0 | 7.0 | 0.00 | 0.00 | 0.00 | 13 | 1012.6 |
| 20260902192307 | 72 | 314 | 3.0 | 8.0 | 0.00 | 0.00 | 0.00 | 13 | 1012.6 |
| 20260902192206 | 72 | 284 | 3.0 | 17.0 | 0.00 | 0.00 | 0.00 | 13 | 1012.6 |
| 20260902191506 | 72 | 234 | 3.0 | 17.0 | 0.00 | 0.00 | 0.00 | 13 | 1012.8 |
| 20260902191405 | 72 | 239 | 4.0 | 17.0 | 0.00 | 0.00 | 0.00 | 12 | 1012.7 |
| 20260902191306 | 72 | 254 | 5.0 | 17.0 | 0.00 | 0.00 | 0.00 | 12 | 1012.8 |
| 20260902191206 | 72 | 265 | 10.0 | 17.0 | 0.00 | 0.00 | 0.00 | 12 | 1012.8 |
| 20260902191105 | 72 | 265 | 8.0 | 17.0 | 0.00 | 0.00 | 0.00 | 12 | 1012.8 |
| 20260902191006 | 72 | 263 | 4.0 | 17.0 | 0.00 | 0.00 | 0.00 | 12 | 1012.8 |
| 20260902190906 | 72 | 273 | 11.0 | 17.0 | 0.00 | 0.00 | 0.00 | 11 | 1012.8 |
| 20260902190806 | 72 | 280 | 9.0 | 17.0 | 0.00 | 0.00 | 0.00 | 11 | 1012.9 |
| 20260902190706 | 73 | 277 | 11.0 | 17.0 | 0.00 | 0.00 | 0.00 | 11 | 1013.0 |
| 20260902190606 | 73 | 259 | 6.0 | 17.0 | 0.00 | 0.00 | 0.00 | 11 | 1013.1 |
| 20260902190507 | 73 | 265 | 2.0 | 17.0 | 0.00 | 0.00 | 0.00 | 12 | 1013.0 |
| 20260902190406 | 73 | 267 | 10.0 | 17.0 | 0.00 | 0.00 | 0.00 | 11 | 1012.9 |
| 20260902190306 | 72 | 260 | 4.0 | 17.0 | 0.00 | 0.00 | 0.00 | 11 | 1013.0 |
| 20260902190205 | 72 | 252 | 6.0 | 17.0 | 0.00 | 0.00 | 0.00 | 11 | 1013.1 |
| 20260902190106 | 72 | 252 | 5.0 | 17.0 | 0.00 | 0.00 | 0.00 | 11 | 1013.0 |
| 20260902190006 | 72 | 245 | 8.0 | 17.0 | 0.00 | 0.00 | 0.00 | 11 | 1013.0 |
| 20260902185906 | 72 | 243 | 4.0 | 17.0 | 0.00 | 0.00 | 0.00 | 13 | 1013.1 |
| 20260902185805 | 72 | 244 | 2.0 | 17.0 | 0.00 | 0.00 | 0.00 | 13 | 1013.1 |
| 20260902185706 | 72 | 248 | 7.0 | 17.0 | 0.00 | 0.00 | 0.00 | 13 | 1013.1 |
| 20260902185606 | 71 | 252 | 4.0 | 17.0 | 0.00 | 0.00 | 0.00 | 13 | 1013.1 |
| 20260902185506 | 71 | 252 | 7.0 | 17.0 | 0.00 | 0.00 | 0.00 | 14 | 1013.1 |
| 20260902185405 | 71 | 254 | 8.0 | 17.0 | 0.00 | 0.00 | 0.00 | 14 | 1013.0 |
| 20260902185208 | 70 | 262 | 8.0 | 17.0 | 0.00 | 0.00 | 0.00 | 14 | 1013.1 |
| 20260902185106 | 70 | 268 | 9.0 | 17.0 | 0.00 | 0.00 | 0.00 | 15 | 1013.0 |
| 20260902185005 | 70 | 267 | 8.0 | 17.0 | 0.00 | 0.00 | 0.00 | 15 | 1012.9 |
| 20260902184906 | 70 | 270 | 7.0 | 17.0 | 0.00 | 0.00 | 0.00 | 15 | 1012.9 |
| 20260902184806 | 69 | 266 | 4.0 | 17.0 | 0.00 | 0.00 | 0.00 | 14 | 1013.1 |
| 20260902184706 | 69 | 261 | 6.0 | 17.0 | 0.00 | 0.00 | 0.00 | 14 | 1013.1 |
| 20260902184605 | 69 | 256 | 11.0 | 17.0 | 0.00 | 0.00 | 0.00 | 14 | 1013.1 |
| 20260902184506 | 69 | 253 | 9.0 | 17.0 | 0.00 | 0.00 | 0.00 | 14 | 1013.2 |
| 20260902184406 | 69 | 242 | 5.0 | 16.0 | 0.00 | 0.00 | 0.00 | 15 | 1013.2 |
| 20260902184306 | 69 | 236 | 8.0 | 16.0 | 0.00 | 0.00 | 0.00 | 15 | 1013.2 |
| 20260902184206 | 69 | 233 | 6.0 | 16.0 | 0.00 | 0.00 | 0.00 | 15 | 1013.1 |
| 20260902183205 | 69 | 237 | 8.0 | 15.0 | 0.00 | 0.00 | 0.00 | 16 | 1013.4 |
| 20260902183106 | 69 | 248 | 7.0 | 15.0 | 0.00 | 0.00 | 0.00 | 16 | 1013.4 |
| 20260902183006 | 69 | 247 | 7.0 | 15.0 | 0.00 | 0.00 | 0.00 | 16 | 1013.3 |
| 20260902182905 | 69 | 249 | 7.0 | 15.0 | 0.00 | 0.00 | 0.00 | 16 | 1013.3 |
| 20260902182805 | 69 | 254 | 2.0 | 19.0 | 0.00 | 0.00 | 0.00 | 16 | 1013.4 |
| 20260902182706 | 69 | 250 | 5.0 | 19.0 | 0.00 | 0.00 | 0.00 | 16 | 1013.4 |
| 20260902182606 | 68 | 241 | 4.0 | 19.0 | 0.00 | 0.00 | 0.00 | 17 | 1013.5 |
| 20260902182406 | 68 | 235 | 6.0 | 19.0 | 0.00 | 0.00 | 0.00 | 17 | 1013.4 |
| 20260902182306 | 68 | 234 | 10.0 | 19.0 | 0.00 | 0.00 | 0.00 | 17 | 1013.3 |
| 20260902182206 | 68 | 232 | 9.0 | 19.0 | 0.00 | 0.00 | 0.00 | 17 | 1013.4 |
| 20260902182105 | 68 | 227 | 9.0 | 19.0 | 0.00 | 0.00 | 0.00 | 17 | 1013.4 |
| 20260902182006 | 67 | 232 | 7.0 | 19.0 | 0.00 | 0.00 | 0.00 | 17 | 1013.4 |
| 20260902181806 | 67 | 229 | 11.0 | 19.0 | 0.00 | 0.00 | 0.00 | 18 | 1013.4 |
| 20260902181705 | 67 | 230 | 11.0 | 19.0 | 0.00 | 0.00 | 0.00 | 18 | 1013.3 |
| 20260902181606 | 67 | 234 | 11.0 | 19.0 | 0.00 | 0.00 | 0.00 | 18 | 1013.4 |
| 20260902181506 | 67 | 235 | 11.0 | 19.0 | 0.00 | 0.00 | 0.00 | 18 | 1013.5 |
| 20260902181406 | 67 | 240 | 11.0 | 19.0 | 0.00 | 0.00 | 0.00 | 18 | 1013.5 |
| 20260902181305 | 67 | 240 | 8.0 | 19.0 | 0.00 | 0.00 | 0.00 | 18 | 1013.4 |
| 20260902181206 | 66 | 244 | 8.0 | 19.0 | 0.00 | 0.00 | 0.00 | 18 | 1013.5 |
| 20260902181106 | 66 | 245 | 11.0 | 19.0 | 0.00 | 0.00 | 0.00 | 18 | 1013.5 |
| 20260902181005 | 66 | 239 | 10.0 | 19.0 | 0.00 | 0.00 | 0.00 | 18 | 1013.4 |
| 20260902180505 | 66 | 229 | 9.0 | 17.0 | 0.00 | 0.00 | 0.00 | 19 | 1013.4 |
| 20260902180405 | 66 | 225 | 9.0 | 17.0 | 0.00 | 0.00 | 0.00 | 19 | 1013.4 |
| 20260902180306 | 66 | 225 | 4.0 | 17.0 | 0.00 | 0.00 | 0.00 | 19 | 1013.4 |
| 20260902180206 | 66 | 218 | 8.0 | 17.0 | 0.00 | 0.00 | 0.00 | 19 | 1013.5 |
| 20260902180105 | 66 | 213 | 8.0 | 17.0 | 0.00 | 0.00 | 0.00 | 19 | 1013.6 |
| 20260902180007 | 65 | 213 | 8.0 | 17.0 | 0.00 | 0.00 | 0.00 | 19 | 1013.6 |
| 20260902175906 | 65 | 213 | 10.0 | 17.0 | 0.00 | 0.00 | 0.00 | 19 | 1013.6 |
| 20260902175806 | 65 | 217 | 11.0 | 17.0 | 0.00 | 0.00 | 0.00 | 19 | 1013.6 |
| 20260902175706 | 65 | 216 | 11.0 | 15.0 | 0.00 | 0.00 | 0.00 | 19 | 1013.5 |
| 20260902175606 | 65 | 215 | 5.0 | 15.0 | 0.00 | 0.00 | 0.00 | 19 | 1013.6 |
| 20260902175506 | 65 | 216 | 7.0 | 15.0 | 0.00 | 0.00 | 0.00 | 19 | 1013.6 |
| 20260902175406 | 65 | 216 | 6.0 | 15.0 | 0.00 | 0.00 | 0.00 | 18 | 1013.5 |
| 20260902175307 | 65 | 216 | 8.0 | 15.0 | 0.00 | 0.00 | 0.00 | 18 | 1013.7 |
| 20260902175206 | 65 | 220 | 8.0 | 15.0 | 0.00 | 0.00 | 0.00 | 18 | 1013.5 |
| 20260902175106 | 65 | 224 | 8.0 | 15.0 | 0.00 | 0.00 | 0.00 | 19 | 1013.6 |
| 20260902175006 | 65 | 217 | 8.0 | 15.0 | 0.00 | 0.00 | 0.00 | 18 | 1013.5 |
| 20260902174906 | 65 | 223 | 8.0 | 15.0 | 0.00 | 0.00 | 0.00 | 18 | 1013.6 |
| 20260902174806 | 65 | 228 | 8.0 | 14.0 | 0.00 | 0.00 | 0.00 | 18 | 1013.6 |
| 20260902174706 | 65 | 228 | 8.0 | 14.0 | 0.00 | 0.00 | 0.00 | 18 | 1013.7 |
| 20260902174605 | 65 | 241 | 8.0 | 16.0 | 0.00 | 0.00 | 0.00 | 18 | 1013.6 |
| 20260902174505 | 65 | 244 | 5.0 | 16.0 | 0.00 | 0.00 | 0.00 | 18 | 1013.6 |
| 20260902174406 | 65 | 237 | 6.0 | 16.0 | 0.00 | 0.00 | 0.00 | 18 | 1013.6 |
| 20260902174306 | 65 | 233 | 5.0 | 16.0 | 0.00 | 0.00 | 0.00 | 18 | 1013.6 |
| 20260902174105 | 65 | 235 | 4.0 | 16.0 | 0.00 | 0.00 | 0.00 | 18 | 1013.6 |
| 20260902174006 | 65 | 239 | 6.0 | 16.0 | 0.00 | 0.00 | 0.00 | 19 | 1013.6 |
| 20260902173906 | 65 | 234 | 8.0 | 16.0 | 0.00 | 0.00 | 0.00 | 19 | 1013.5 |
| 20260902173806 | 65 | 231 | 11.0 | 16.0 | 0.00 | 0.00 | 0.00 | 19 | 1013.6 |
| 20260902173706 | 64 | 231 | 9.0 | 16.0 | 0.00 | 0.00 | 0.00 | 19 | 1013.6 |
| 20260902173605 | 64 | 226 | 11.0 | 16.0 | 0.00 | 0.00 | 0.00 | 19 | 1013.6 |
| 20260902173505 | 64 | 223 | 8.0 | 16.0 | 0.00 | 0.00 | 0.00 | 19 | 1013.6 |
| 20260902173406 | 64 | 226 | 9.0 | 16.0 | 0.00 | 0.00 | 0.00 | 19 | 1013.6 |
| 20260902173306 | 64 | 228 | 11.0 | 16.0 | 0.00 | 0.00 | 0.00 | 19 | 1013.5 |
| 20260902173205 | 64 | 228 | 9.0 | 17.0 | 0.00 | 0.00 | 0.00 | 19 | 1013.7 |
| 20260902173106 | 64 | 226 | 9.0 | 17.0 | 0.00 | 0.00 | 0.00 | 19 | 1013.6 |
| 20260902173006 | 64 | 223 | 11.0 | 17.0 | 0.00 | 0.00 | 0.00 | 19 | 1013.6 |
| 20260902172905 | 64 | 223 | 11.0 | 17.0 | 0.00 | 0.00 | 0.00 | 19 | 1013.6 |
| 20260902172805 | 64 | 222 | 7.0 | 17.0 | 0.00 | 0.00 | 0.00 | 19 | 1013.6 |
| 20260902172706 | 64 | 220 | 9.0 | 17.0 | 0.00 | 0.00 | 0.00 | 19 | 1013.6 |
| 20260902172606 | 64 | 225 | 6.0 | 17.0 | 0.00 | 0.00 | 0.00 | 19 | 1013.6 |
| 20260902172506 | 64 | 225 | 8.0 | 17.0 | 0.00 | 0.00 | 0.00 | 19 | 1013.7 |
| 20260902172406 | 64 | 225 | 9.0 | 17.0 | 0.00 | 0.00 | 0.00 | 19 | 1013.6 |
| 20260902172308 | 64 | 222 | 11.0 | 17.0 | 0.00 | 0.00 | 0.00 | 19 | 1013.6 |
| 20260902172206 | 64 | 218 | 8.0 | 14.0 | 0.00 | 0.00 | 0.00 | 19 | 1013.6 |
| 20260902172105 | 64 | 221 | 8.0 | 14.0 | 0.00 | 0.00 | 0.00 | 20 | 1013.6 |
| 20260902172006 | 64 | 225 | 9.0 | 15.0 | 0.00 | 0.00 | 0.00 | 20 | 1013.6 |
| 20260902171906 | 64 | 227 | 6.0 | 15.0 | 0.00 | 0.00 | 0.00 | 20 | 1013.6 |
| 20260902171806 | 64 | 232 | 7.0 | 15.0 | 0.00 | 0.00 | 0.00 | 20 | 1013.6 |
| 20260902171705 | 64 | 231 | 8.0 | 15.0 | 0.00 | 0.00 | 0.00 | 20 | 1013.7 |
| 20260902171605 | 64 | 224 | 4.0 | 15.0 | 0.00 | 0.00 | 0.00 | 21 | 1013.7 |
| 20260902171505 | 64 | 224 | 4.0 | 15.0 | 0.00 | 0.00 | 0.00 | 21 | 1013.6 |
| 20260902171406 | 64 | 224 | 4.0 | 15.0 | 0.00 | 0.00 | 0.00 | 21 | 1013.6 |
| 20260902171306 | 64 | 226 | 5.0 | 15.0 | 0.00 | 0.00 | 0.00 | 20 | 1013.6 |
| 20260902171206 | 64 | 231 | 7.0 | 15.0 | 0.00 | 0.00 | 0.00 | 20 | 1013.6 |
| 20260902171105 | 64 | 234 | 5.0 | 15.0 | 0.00 | 0.00 | 0.00 | 20 | 1013.6 |
| 20260902171005 | 64 | 236 | 10.0 | 15.0 | 0.00 | 0.00 | 0.00 | 20 | 1013.6 |
| 20260902170906 | 64 | 238 | 8.0 | 13.0 | 0.00 | 0.00 | 0.00 | 20 | 1013.6 |
| 20260902170405 | 63 | 250 | 8.0 | 13.0 | 0.00 | 0.00 | 0.00 | 21 | 1013.4 |
| 20260902170305 | 63 | 251 | 7.0 | 13.0 | 0.00 | 0.00 | 0.00 | 21 | 1013.6 |
| 20260902170206 | 63 | 248 | 4.0 | 13.0 | 0.00 | 0.00 | 0.00 | 21 | 1013.5 |
| 20260902170106 | 63 | 242 | 8.0 | 13.0 | 0.00 | 0.00 | 0.00 | 21 | 1013.4 |
| 20260902170006 | 63 | 237 | 7.0 | 13.0 | 0.00 | 0.00 | 0.00 | 21 | 1013.4 |
| 20260902165905 | 63 | 229 | 9.0 | 12.0 | 0.00 | 0.00 | 0.00 | 21 | 1013.3 |
| 20260902165806 | 63 | 227 | 8.0 | 12.0 | 0.00 | 0.00 | 0.00 | 21 | 1013.3 |
| 20260902165706 | 63 | 224 | 5.0 | 15.0 | 0.00 | 0.00 | 0.00 | 21 | 1013.3 |
| 20260902165606 | 63 | 225 | 5.0 | 17.0 | 0.00 | 0.00 | 0.00 | 22 | 1013.3 |
| 20260902165505 | 63 | 225 | 5.0 | 17.0 | 0.00 | 0.00 | 0.00 | 22 | 1013.4 |
| 20260902165406 | 63 | 226 | 7.0 | 17.0 | 0.00 | 0.00 | 0.00 | 22 | 1013.4 |
| 20260902165309 | 63 | 227 | 8.0 | 17.0 | 0.00 | 0.00 | 0.00 | 21 | 1013.4 |
| 20260902165206 | 63 | 229 | 7.0 | 17.0 | 0.00 | 0.00 | 0.00 | 22 | 1013.4 |
| 20260902165106 | 63 | 234 | 4.0 | 17.0 | 0.00 | 0.00 | 0.00 | 22 | 1013.4 |
| 20260902165006 | 63 | 244 | 5.0 | 17.0 | 0.00 | 0.00 | 0.00 | 22 | 1013.4 |
| 20260902164906 | 63 | 246 | 8.0 | 17.0 | 0.00 | 0.00 | 0.00 | 22 | 1013.4 |
| 20260902164806 | 63 | 251 | 11.0 | 17.0 | 0.00 | 0.00 | 0.00 | 21 | 1013.4 |
| 20260902164706 | 63 | 251 | 11.0 | 17.0 | 0.00 | 0.00 | 0.00 | 21 | 1013.3 |
| 20260902164605 | 63 | 247 | 10.0 | 17.0 | 0.00 | 0.00 | 0.00 | 21 | 1013.3 |
| 20260902164506 | 63 | 251 | 9.0 | 15.0 | 0.00 | 0.00 | 0.00 | 21 | 1013.3 |
| 20260902164406 | 63 | 254 | 8.0 | 15.0 | 0.00 | 0.00 | 0.00 | 21 | 1013.3 |
| 20260902163806 | 63 | 240 | 9.0 | 15.0 | 0.00 | 0.00 | 0.00 | 21 | 1013.5 |
| 20260902163705 | 63 | 243 | 7.0 | 14.0 | 0.00 | 0.00 | 0.00 | 20 | 1013.3 |
| 20260902163605 | 63 | 245 | 8.0 | 14.0 | 0.00 | 0.00 | 0.00 | 21 | 1013.3 |
| 20260902163506 | 63 | 240 | 4.0 | 14.0 | 0.00 | 0.00 | 0.00 | 21 | 1013.3 |
| 20260902163406 | 63 | 241 | 5.0 | 14.0 | 0.00 | 0.00 | 0.00 | 21 | 1013.3 |
| 20260902163305 | 63 | 244 | 6.0 | 14.0 | 0.00 | 0.00 | 0.00 | 20 | 1013.3 |
| 20260902163206 | 64 | 251 | 7.0 | 14.0 | 0.00 | 0.00 | 0.00 | 20 | 1013.4 |
| 20260902163106 | 64 | 256 | 7.0 | 14.0 | 0.00 | 0.00 | 0.00 | 20 | 1013.4 |
| 20260902163006 | 64 | 262 | 7.0 | 14.0 | 0.00 | 0.00 | 0.00 | 20 | 1013.4 |
| 20260902162906 | 64 | 270 | 7.0 | 14.0 | 0.00 | 0.00 | 0.00 | 20 | 1013.3 |
| 20260902162806 | 64 | 273 | 8.0 | 14.0 | 0.00 | 0.00 | 0.00 | 19 | 1013.3 |
| 20260902162705 | 64 | 278 | 8.0 | 14.0 | 0.00 | 0.00 | 0.00 | 19 | 1013.3 |
| 20260902162606 | 64 | 282 | 9.0 | 14.0 | 0.00 | 0.00 | 0.00 | 19 | 1013.2 |
| 20260902162506 | 64 | 290 | 6.0 | 12.0 | 0.00 | 0.00 | 0.00 | 19 | 1013.2 |
| 20260902162406 | 63 | 297 | 4.0 | 10.0 | 0.00 | 0.00 | 0.00 | 19 | 1013.3 |
| 20260902162307 | 63 | 304 | 6.0 | 10.0 | 0.00 | 0.00 | 0.00 | 19 | 1013.4 |
| 20260902162206 | 63 | 298 | 6.0 | 10.0 | 0.00 | 0.00 | 0.00 | 19 | 1013.2 |
| 20260902162106 | 63 | 289 | 6.0 | 14.0 | 0.00 | 0.00 | 0.00 | 19 | 1013.3 |
| 20260902162006 | 63 | 274 | 6.0 | 14.0 | 0.00 | 0.00 | 0.00 | 19 | 1013.3 |
| 20260902161905 | 63 | 248 | 6.0 | 14.0 | 0.00 | 0.00 | 0.00 | 19 | 1013.3 |
| 20260902161706 | 62 | 231 | 6.0 | 15.0 | 0.00 | 0.00 | 0.00 | 19 | 1013.3 |
| 20260902161606 | 62 | 236 | 6.0 | 15.0 | 0.00 | 0.00 | 0.00 | 19 | 1013.3 |
| 20260902161506 | 62 | 238 | 6.0 | 15.0 | 0.00 | 0.00 | 0.00 | 19 | 1013.3 |
| 20260902161406 | 62 | 243 | 6.0 | 15.0 | 0.00 | 0.00 | 0.00 | 19 | 1013.3 |
| 20260902161306 | 62 | 244 | 4.0 | 15.0 | 0.00 | 0.00 | 0.00 | 19 | 1013.3 |
| 20260902161206 | 62 | 237 | 6.0 | 15.0 | 0.00 | 0.00 | 0.00 | 19 | 1013.3 |
| 20260902161105 | 62 | 243 | 8.0 | 15.0 | 0.00 | 0.00 | 0.00 | 19 | 1013.4 |
| 20260902161006 | 62 | 253 | 8.0 | 15.0 | 0.00 | 0.00 | 0.00 | 19 | 1013.3 |
| 20260902160906 | 62 | 250 | 4.0 | 15.0 | 0.00 | 0.00 | 0.00 | 19 | 1013.3 |
| 20260902160805 | 62 | 245 | 2.0 | 15.0 | 0.00 | 0.00 | 0.00 | 19 | 1013.4 |
| 20260902160706 | 62 | 240 | 3.0 | 15.0 | 0.00 | 0.00 | 0.00 | 19 | 1013.3 |
| 20260902160605 | 63 | 235 | 8.0 | 15.0 | 0.00 | 0.00 | 0.00 | 19 | 1013.3 |
| 20260902160505 | 62 | 231 | 6.0 | 15.0 | 0.00 | 0.00 | 0.00 | 19 | 1013.4 |
| 20260902160406 | 62 | 233 | 6.0 | 15.0 | 0.00 | 0.00 | 0.00 | 19 | 1013.3 |
| 20260902160306 | 62 | 232 | 4.0 | 15.0 | 0.00 | 0.00 | 0.00 | 19 | 1013.4 |
| 20260902160205 | 62 | 239 | 10.0 | 15.0 | 0.00 | 0.00 | 0.00 | 19 | 1013.4 |
| 20260902160106 | 62 | 237 | 6.0 | 15.0 | 0.00 | 0.00 | 0.00 | 19 | 1013.3 |
| 20260902160008 | 62 | 229 | 8.0 | 15.0 | 0.00 | 0.00 | 0.00 | 19 | 1013.4 |
| 20260902155905 | 62 | 229 | 8.0 | 15.0 | 0.00 | 0.00 | 0.00 | 19 | 1013.4 |
| 20260902155806 | 62 | 229 | 8.0 | 15.0 | 0.00 | 0.00 | 0.00 | 19 | 1013.5 |
| 20260902155705 | 62 | 229 | 4.0 | 15.0 | 0.00 | 0.00 | 0.00 | 20 | 1013.5 |
| 20260902155606 | 62 | 229 | 4.0 | 15.0 | 0.00 | 0.00 | 0.00 | 20 | 1013.5 |
| 20260902155506 | 62 | 232 | 6.0 | 15.0 | 0.00 | 0.00 | 0.00 | 20 | 1013.6 |
| 20260902155406 | 62 | 228 | 6.0 | 15.0 | 0.00 | 0.00 | 0.00 | 20 | 1013.5 |
| 20260902155307 | 62 | 224 | 7.0 | 15.0 | 0.00 | 0.00 | 0.00 | 21 | 1013.5 |
| 20260902155106 | 62 | 223 | 5.0 | 15.0 | 0.00 | 0.00 | 0.00 | 21 | 1013.5 |
| 20260902155006 | 62 | 225 | 11.0 | 15.0 | 0.00 | 0.00 | 0.00 | 20 | 1013.6 |
| 20260902154905 | 62 | 227 | 8.0 | 15.0 | 0.00 | 0.00 | 0.00 | 21 | 1013.6 |
| 20260902154806 | 62 | 230 | 7.0 | 13.0 | 0.00 | 0.00 | 0.00 | 21 | 1013.6 |
| 20260902154706 | 62 | 230 | 5.0 | 13.0 | 0.00 | 0.00 | 0.00 | 21 | 1013.6 |
| 20260902154605 | 62 | 236 | 4.0 | 15.0 | 0.00 | 0.00 | 0.00 | 21 | 1013.7 |
| 20260902154506 | 62 | 237 | 9.0 | 17.0 | 0.00 | 0.00 | 0.00 | 21 | 1013.6 |
| 20260902154406 | 62 | 244 | 9.0 | 17.0 | 0.00 | 0.00 | 0.00 | 21 | 1013.6 |
| 20260902154305 | 62 | 244 | 7.0 | 17.0 | 0.00 | 0.00 | 0.00 | 21 | 1013.6 |
| 20260902154206 | 62 | 244 | 9.0 | 17.0 | 0.00 | 0.00 | 0.00 | 21 | 1013.6 |
| 20260902153706 | 62 | 236 | 6.0 | 17.0 | 0.00 | 0.00 | 0.00 | 21 | 1013.5 |
| 20260902153206 | 62 | 231 | 11.0 | 16.0 | 0.00 | 0.00 | 0.00 | 21 | 1013.5 |
| 20260902153105 | 62 | 230 | 12.0 | 15.0 | 0.00 | 0.00 | 0.00 | 21 | 1013.5 |
| 20260902153006 | 62 | 228 | 8.0 | 15.0 | 0.00 | 0.00 | 0.00 | 20 | 1013.5 |
| 20260902152905 | 62 | 224 | 8.0 | 15.0 | 0.00 | 0.00 | 0.00 | 20 | 1013.5 |
| 20260902152805 | 62 | 226 | 8.0 | 11.0 | 0.00 | 0.00 | 0.00 | 20 | 1013.6 |
| 20260902152706 | 62 | 234 | 5.0 | 11.0 | 0.00 | 0.00 | 0.00 | 20 | 1013.6 |
| 20260902152606 | 62 | 245 | 6.0 | 11.0 | 0.00 | 0.00 | 0.00 | 20 | 1013.6 |
| 20260902152505 | 62 | 252 | 7.0 | 16.0 | 0.00 | 0.00 | 0.00 | 19 | 1013.5 |
| 20260902152405 | 62 | 269 | 2.0 | 16.0 | 0.00 | 0.00 | 0.00 | 19 | 1013.5 |
| 20260902152308 | 62 | 270 | 6.0 | 16.0 | 0.00 | 0.00 | 0.00 | 19 | 1013.5 |
| 20260902152206 | 62 | 264 | 6.0 | 16.0 | 0.00 | 0.00 | 0.00 | 20 | 1013.5 |
| 20260902152105 | 62 | 255 | 4.0 | 16.0 | 0.00 | 0.00 | 0.00 | 20 | 1013.5 |
| 20260902152006 | 62 | 251 | 5.0 | 16.0 | 0.00 | 0.00 | 0.00 | 19 | 1013.4 |
| 20260902151906 | 62 | 254 | 7.0 | 16.0 | 0.00 | 0.00 | 0.00 | 19 | 1013.4 |
| 20260902151805 | 62 | 252 | 6.0 | 16.0 | 0.00 | 0.00 | 0.00 | 19 | 1013.4 |
| 20260902151705 | 62 | 244 | 7.0 | 16.0 | 0.00 | 0.00 | 0.00 | 19 | 1013.5 |
| 20260902151606 | 62 | 236 | 10.0 | 16.0 | 0.00 | 0.00 | 0.00 | 19 | 1013.3 |
| 20260902151506 | 62 | 234 | 11.0 | 16.0 | 0.00 | 0.00 | 0.00 | 19 | 1013.3 |
| 20260902151306 | 62 | 218 | 8.0 | 16.0 | 0.00 | 0.00 | 0.00 | 20 | 1013.4 |
| 20260902151206 | 61 | 216 | 11.0 | 16.0 | 0.00 | 0.00 | 0.00 | 20 | 1013.3 |
| 20260902151105 | 61 | 222 | 7.0 | 16.0 | 0.00 | 0.00 | 0.00 | 20 | 1013.3 |
| 20260902151006 | 61 | 225 | 8.0 | 16.0 | 0.00 | 0.00 | 0.00 | 20 | 1013.3 |
| 20260902150906 | 61 | 225 | 10.0 | 16.0 | 0.00 | 0.00 | 0.00 | 21 | 1013.3 |
| 20260902150806 | 61 | 224 | 7.0 | 11.0 | 0.00 | 0.00 | 0.00 | 22 | 1013.3 |
| 20260902150706 | 60 | 224 | 6.0 | 10.0 | 0.00 | 0.00 | 0.00 | 22 | 1013.3 |
| 20260902150613 | 60 | 224 | 7.0 | 10.0 | 0.00 | 0.00 | 0.00 | 22 | 1013.3 |
| 20260902150305 | 60 | 220 | 4.0 | 8.0 | 0.00 | 0.00 | 0.00 | 24 | 1013.3 |
| 20260902150206 | 59 | 219 | 5.0 | 8.0 | 0.00 | 0.00 | 0.00 | 23 | 1013.3 |
| 20260902150006 | 59 | 212 | 4.0 | 6.0 | 0.00 | 0.00 | 0.00 | 24 | 1013.3 |
| 20260902145906 | 59 | 206 | 4.0 | 6.0 | 0.00 | 0.00 | 0.00 | 24 | 1013.3 |
| 20260902145805 | 57 | 200 | 3.0 | 4.0 | 0.00 | 0.00 | 0.00 | 26 | 1013.3 |
| 20260902145706 | 57 | 212 | 3.0 | 4.0 | 0.00 | 0.00 | 0.00 | 26 | 1013.4 |
| 20260902145606 | 57 | 208 | 3.0 | 4.0 | 0.00 | 0.00 | 0.00 | 26 | 1013.3 |
| 20260902145505 | 57 | 213 | 3.0 | 4.0 | 0.00 | 0.00 | 0.00 | 26 | 1013.4 |
| 20260902145406 | 57 | 221 | 3.0 | 4.0 | 0.00 | 0.00 | 0.00 | 26 | 1013.2 |
| 20260902145306 | 57 | 225 | 2.0 | 4.0 | 0.00 | 0.00 | 0.00 | 26 | 1013.2 |
| 20260902145206 | 57 | 225 | 2.0 | 4.0 | 0.00 | 0.00 | 0.00 | 27 | 1013.2 |
| 20260902145106 | 56 | 225 | 2.0 | 4.0 | 0.00 | 0.00 | 0.00 | 27 | 1013.2 |
| 20260902145005 | 56 | 225 | 1.0 | 3.0 | 0.00 | 0.00 | 0.00 | 27 | 1013.3 |
| 20260902144906 | 56 | 225 | 1.0 | 3.0 | 0.00 | 0.00 | 0.00 | 27 | 1013.2 |
| 20260902144806 | 56 | 0 | 0.0 | 1.0 | 0.00 | 0.00 | 0.00 | 27 | 1013.1 |
| 20260902134806 | 67 | 316 | 7.0 | 10.0 | 0.00 | 0.00 | 0.00 | 22 | 1011.2 |
| 20260902134705 | 67 | 316 | 7.0 | 10.0 | 0.00 | 0.00 | 0.00 | 22 | 1011.2 |
| 20260902134605 | 67 | 316 | 7.0 | 10.0 | 0.00 | 0.00 | 0.00 | 22 | 1011.2 |
| 20260902134506 | 67 | 316 | 7.0 | 10.0 | 0.00 | 0.00 | 0.00 | 22 | 1011.2 |
| 20260902134406 | 67 | 316 | 7.0 | 10.0 | 0.00 | 0.00 | 0.00 | 22 | 1011.3 |
| 20260902134306 | 67 | 316 | 7.0 | 10.0 | 0.00 | 0.00 | 0.00 | 22 | 1011.4 |
| 20260902134206 | 67 | 316 | 7.0 | 10.0 | 0.00 | 0.00 | 0.00 | 22 | 1011.3 |
| 20260902134105 | 67 | 316 | 7.0 | 10.0 | 0.00 | 0.00 | 0.00 | 22 | 1011.2 |
| 20260902134006 | 67 | 316 | 7.0 | 10.0 | 0.00 | 0.00 | 0.00 | 22 | 1011.2 |
| 20260902133805 | 67 | 316 | 7.0 | 10.0 | 0.00 | 0.00 | 0.00 | 22 | 1011.3 |
| 20260902133706 | 67 | 316 | 7.0 | 10.0 | 0.00 | 0.00 | 0.00 | 22 | 1011.3 |
| 20260902133605 | 67 | 316 | 7.0 | 10.0 | 0.00 | 0.00 | 0.00 | 22 | 1011.3 |
| 20260902133506 | 67 | 316 | 7.0 | 10.0 | 0.00 | 0.00 | 0.00 | 22 | 1011.3 |
| 20260902133406 | 67 | 316 | 7.0 | 10.0 | 0.00 | 0.00 | 0.00 | 22 | 1011.2 |
| 20260902133306 | 67 | 316 | 7.0 | 10.0 | 0.00 | 0.00 | 0.00 | 22 | 1011.2 |
| 20260902133006 | 67 | 316 | 7.0 | 10.0 | 0.00 | 0.00 | 0.00 | 22 | 1011.2 |
| 20260902132905 | 67 | 316 | 7.0 | 10.0 | 0.00 | 0.00 | 0.00 | 22 | 1011.1 |
| 20260902132806 | 67 | 316 | 7.0 | 10.0 | 0.00 | 0.00 | 0.00 | 22 | 1011.1 |
| 20260902132705 | 67 | 316 | 7.0 | 10.0 | 0.00 | 0.00 | 0.00 | 22 | 1011.1 |
| 20260902132605 | 67 | 316 | 7.0 | 10.0 | 0.00 | 0.00 | 0.00 | 22 | 1011.1 |
| 20260902132505 | 67 | 316 | 7.0 | 10.0 | 0.00 | 0.00 | 0.00 | 22 | 1011.1 |
| 20260902132406 | 67 | 316 | 7.0 | 10.0 | 0.00 | 0.00 | 0.00 | 22 | 1011.2 |
| 20260902132307 | 67 | 316 | 7.0 | 10.0 | 0.00 | 0.00 | 0.00 | 22 | 1011.0 |
| 20260902132205 | 67 | 316 | 7.0 | 10.0 | 0.00 | 0.00 | 0.00 | 22 | 1011.1 |
| 20260902132106 | 67 | 316 | 7.0 | 10.0 | 0.00 | 0.00 | 0.00 | 22 | 1011.1 |
| 20260902132006 | 67 | 316 | 7.0 | 10.0 | 0.00 | 0.00 | 0.00 | 22 | 1011.1 |
| 20260902131905 | 67 | 316 | 7.0 | 10.0 | 0.00 | 0.00 | 0.00 | 22 | 1011.1 |
| 20260902131805 | 67 | 316 | 7.0 | 10.0 | 0.00 | 0.00 | 0.00 | 22 | 1011.1 |
| 20260902131706 | 67 | 316 | 7.0 | 10.0 | 0.00 | 0.00 | 0.00 | 22 | 1011.0 |
| 20260902131606 | 67 | 316 | 7.0 | 10.0 | 0.00 | 0.00 | 0.00 | 22 | 1011.1 |
| 20260902131505 | 67 | 316 | 7.0 | 10.0 | 0.00 | 0.00 | 0.00 | 22 | 1011.1 |
| 20260902131405 | 67 | 316 | 7.0 | 10.0 | 0.00 | 0.00 | 0.00 | 22 | 1010.9 |
| 20260902131306 | 67 | 316 | 7.0 | 10.0 | 0.00 | 0.00 | 0.00 | 22 | 1010.9 |
| 20260902131206 | 67 | 316 | 7.0 | 10.0 | 0.00 | 0.00 | 0.00 | 22 | 1011.0 |
| 20260902131105 | 67 | 316 | 7.0 | 10.0 | 0.00 | 0.00 | 0.00 | 22 | 1011.0 |
| 20260902131005 | 67 | 316 | 7.0 | 10.0 | 0.00 | 0.00 | 0.00 | 22 | 1011.0 |
| 20260902130906 | 67 | 316 | 7.0 | 10.0 | 0.00 | 0.00 | 0.00 | 22 | 1010.9 |
| 20260902130805 | 67 | 316 | 7.0 | 10.0 | 0.00 | 0.00 | 0.00 | 22 | 1010.9 |
| 20260902130706 | 67 | 316 | 7.0 | 10.0 | 0.00 | 0.00 | 0.00 | 22 | 1010.9 |
| 20260902130606 | 67 | 316 | 7.0 | 10.0 | 0.00 | 0.00 | 0.00 | 22 | 1010.9 |
| 20260902130505 | 67 | 316 | 7.0 | 10.0 | 0.00 | 0.00 | 0.00 | 22 | 1010.9 |
| 20260902130406 | 67 | 316 | 7.0 | 10.0 | 0.00 | 0.00 | 0.00 | 22 | 1011.0 |
| 20260902130306 | 67 | 316 | 7.0 | 10.0 | 0.00 | 0.00 | 0.00 | 22 | 1010.9 |
| 20260902130205 | 67 | 316 | 7.0 | 10.0 | 0.00 | 0.00 | 0.00 | 22 | 1010.8 |
| 20260902130106 | 67 | 316 | 7.0 | 10.0 | 0.00 | 0.00 | 0.00 | 22 | 1010.9 |
| 20260902130005 | 67 | 316 | 7.0 | 10.0 | 0.00 | 0.00 | 0.00 | 22 | 1010.9 |
| 20260902125906 | 67 | 316 | 7.0 | 10.0 | 0.00 | 0.00 | 0.00 | 22 | 1010.8 |
| 20260902125806 | 67 | 316 | 7.0 | 10.0 | 0.00 | 0.00 | 0.00 | 22 | 1010.9 |
| 20260902125705 | 67 | 316 | 7.0 | 10.0 | 0.00 | 0.00 | 0.00 | 22 | 1010.9 |
| 20260902125606 | 67 | 316 | 7.0 | 10.0 | 0.00 | 0.00 | 0.00 | 22 | 1010.9 |
| 20260902125506 | 67 | 316 | 7.0 | 10.0 | 0.00 | 0.00 | 0.00 | 22 | 1011.0 |
| 20260902125405 | 67 | 316 | 7.0 | 10.0 | 0.00 | 0.00 | 0.00 | 22 | 1010.9 |
| 20260902125306 | 67 | 316 | 7.0 | 10.0 | 0.00 | 0.00 | 0.00 | 22 | 1010.9 |
| 20260902125206 | 67 | 316 | 7.0 | 10.0 | 0.00 | 0.00 | 0.00 | 22 | 1010.9 |
| 20260902125105 | 67 | 316 | 7.0 | 10.0 | 0.00 | 0.00 | 0.00 | 22 | 1010.9 |
| 20260902125005 | 67 | 316 | 7.0 | 10.0 | 0.00 | 0.00 | 0.00 | 22 | 1010.9 |
| 20260902124906 | 67 | 316 | 7.0 | 10.0 | 0.00 | 0.00 | 0.00 | 22 | 1010.8 |
| 20260902124806 | 67 | 316 | 7.0 | 10.0 | 0.00 | 0.00 | 0.00 | 22 | 1010.8 |
| 20260902124705 | 67 | 316 | 7.0 | 10.0 | 0.00 | 0.00 | 0.00 | 22 | 1010.9 |
| 20260902124606 | 67 | 316 | 7.0 | 10.0 | 0.00 | 0.00 | 0.00 | 22 | 1010.8 |
| 20260902124506 | 67 | 316 | 7.0 | 10.0 | 0.00 | 0.00 | 0.00 | 22 | 1010.7 |
| 20260902124405 | 67 | 316 | 7.0 | 10.0 | 0.00 | 0.00 | 0.00 | 22 | 1010.7 |
| 20260902123706 | 67 | 316 | 7.0 | 10.0 | 0.00 | 0.00 | 0.00 | 22 | 1010.6 |
| 20260902123605 | 67 | 316 | 7.0 | 10.0 | 0.00 | 0.00 | 0.00 | 22 | 1010.8 |
| 20260902123505 | 67 | 316 | 7.0 | 10.0 | 0.00 | 0.00 | 0.00 | 22 | 1010.6 |
| 20260902123405 | 67 | 316 | 7.0 | 10.0 | 0.00 | 0.00 | 0.00 | 22 | 1010.6 |
| 20260902123306 | 67 | 316 | 7.0 | 10.0 | 0.00 | 0.00 | 0.00 | 22 | 1010.8 |
| 20260902123205 | 67 | 316 | 7.0 | 10.0 | 0.00 | 0.00 | 0.00 | 22 | 1010.7 |
| 20260902123105 | 67 | 316 | 7.0 | 10.0 | 0.00 | 0.00 | 0.00 | 22 | 1010.6 |
| 20260902123006 | 67 | 316 | 7.0 | 10.0 | 0.00 | 0.00 | 0.00 | 22 | 1010.6 |
| 20260902122906 | 67 | 316 | 7.0 | 10.0 | 0.00 | 0.00 | 0.00 | 22 | 1010.7 |
| 20260902122805 | 67 | 316 | 7.0 | 10.0 | 0.00 | 0.00 | 0.00 | 22 | 1010.7 |
| 20260902122705 | 67 | 316 | 7.0 | 10.0 | 0.00 | 0.00 | 0.00 | 22 | 1010.7 |
| 20260902122606 | 67 | 316 | 7.0 | 10.0 | 0.00 | 0.00 | 0.00 | 22 | 1010.6 |
| 20260902122506 | 67 | 316 | 7.0 | 10.0 | 0.00 | 0.00 | 0.00 | 22 | 1010.7 |
| 20260902122405 | 67 | 316 | 7.0 | 10.0 | 0.00 | 0.00 | 0.00 | 22 | 1010.7 |
| 20260902122205 | 67 | 316 | 7.0 | 10.0 | 0.00 | 0.00 | 0.00 | 22 | 1010.7 |
| 20260902122105 | 67 | 316 | 7.0 | 10.0 | 0.00 | 0.00 | 0.00 | 22 | 1010.7 |
| 20260902122005 | 67 | 316 | 7.0 | 10.0 | 0.00 | 0.00 | 0.00 | 22 | 1010.7 |
| 20260902121906 | 67 | 316 | 7.0 | 10.0 | 0.00 | 0.00 | 0.00 | 22 | 1010.6 |
| 20260902121806 | 67 | 316 | 7.0 | 10.0 | 0.00 | 0.00 | 0.00 | 22 | 1010.7 |
| 20260902121705 | 67 | 316 | 7.0 | 10.0 | 0.00 | 0.00 | 0.00 | 22 | 1010.9 |
| 20260902121205 | 67 | 316 | 7.0 | 10.0 | 0.00 | 0.00 | 0.00 | 22 | 1010.8 |
| 20260902121105 | 67 | 316 | 7.0 | 10.0 | 0.00 | 0.00 | 0.00 | 22 | 1010.9 |
| 20260902121006 | 67 | 316 | 7.0 | 10.0 | 0.00 | 0.00 | 0.00 | 22 | 1010.9 |
| 20260902120906 | 67 | 316 | 7.0 | 10.0 | 0.00 | 0.00 | 0.00 | 22 | 1010.7 |
| 20260902120805 | 67 | 316 | 7.0 | 10.0 | 0.00 | 0.00 | 0.00 | 22 | 1010.9 |
| 20260902120705 | 67 | 316 | 7.0 | 10.0 | 0.00 | 0.00 | 0.00 | 22 | 1010.7 |
| 20260902120606 | 67 | 316 | 7.0 | 10.0 | 0.00 | 0.00 | 0.00 | 22 | 1010.7 |
| 20260902120505 | 67 | 316 | 7.0 | 10.0 | 0.00 | 0.00 | 0.00 | 22 | 1010.7 |
| 20260902120405 | 67 | 316 | 7.0 | 10.0 | 0.00 | 0.00 | 0.00 | 22 | 1010.7 |
| 20260902120305 | 67 | 316 | 7.0 | 10.0 | 0.00 | 0.00 | 0.00 | 22 | 1010.8 |
| 20260902120206 | 67 | 316 | 7.0 | 10.0 | 0.00 | 0.00 | 0.00 | 22 | 1010.7 |
| 20260902120106 | 67 | 316 | 7.0 | 10.0 | 0.00 | 0.00 | 0.00 | 22 | 1010.8 |
| 20260902120005 | 67 | 316 | 7.0 | 10.0 | 0.00 | 0.00 | 0.00 | 22 | 1010.7 |
| 20260902115906 | 67 | 316 | 7.0 | 10.0 | 0.00 | 0.00 | 0.00 | 22 | 1010.7 |
| 20260902115806 | 67 | 316 | 7.0 | 10.0 | 0.00 | 0.00 | 0.00 | 22 | 1010.6 |
| 20260902115705 | 67 | 316 | 7.0 | 10.0 | 0.00 | 0.00 | 0.00 | 22 | 1010.9 |
| 20260902115606 | 67 | 316 | 7.0 | 10.0 | 0.00 | 0.00 | 0.00 | 22 | 1010.9 |
| 20260902115506 | 67 | 316 | 7.0 | 10.0 | 0.00 | 0.00 | 0.00 | 22 | 1010.7 |
| 20260902115406 | 67 | 316 | 7.0 | 10.0 | 0.00 | 0.00 | 0.00 | 22 | 1010.8 |
| 20260902115308 | 67 | 316 | 7.0 | 10.0 | 0.00 | 0.00 | 0.00 | 22 | 1010.9 |
| 20260902115205 | 67 | 316 | 7.0 | 10.0 | 0.00 | 0.00 | 0.00 | 22 | 1010.9 |
| 20260902115106 | 67 | 316 | 7.0 | 10.0 | 0.00 | 0.00 | 0.00 | 22 | 1010.7 |
| 20260902115006 | 67 | 316 | 7.0 | 10.0 | 0.00 | 0.00 | 0.00 | 22 | 1010.8 |
| 20260902114905 | 67 | 316 | 7.0 | 10.0 | 0.00 | 0.00 | 0.00 | 22 | 1010.8 |
| 20260902114806 | 67 | 316 | 7.0 | 10.0 | 0.00 | 0.00 | 0.00 | 22 | 1010.7 |
| 20260902114706 | 67 | 316 | 7.0 | 10.0 | 0.00 | 0.00 | 0.00 | 22 | 1010.8 |
| 20260902114605 | 67 | 316 | 7.0 | 10.0 | 0.00 | 0.00 | 0.00 | 22 | 1010.8 |
| 20260902114506 | 67 | 316 | 7.0 | 10.0 | 0.00 | 0.00 | 0.00 | 22 | 1010.8 |
| 20260902114405 | 67 | 316 | 7.0 | 10.0 | 0.00 | 0.00 | 0.00 | 22 | 1010.9 |
| 20260902114305 | 67 | 316 | 7.0 | 10.0 | 0.00 | 0.00 | 0.00 | 22 | 1010.7 |
| 20260902114206 | 67 | 316 | 7.0 | 10.0 | 0.00 | 0.00 | 0.00 | 22 | 1010.8 |
| 20260902114106 | 67 | 316 | 7.0 | 10.0 | 0.00 | 0.00 | 0.00 | 22 | 1010.7 |
| 20260902114006 | 67 | 316 | 7.0 | 10.0 | 0.00 | 0.00 | 0.00 | 22 | 1010.8 |
| 20260902113906 | 67 | 316 | 7.0 | 10.0 | 0.00 | 0.00 | 0.00 | 22 | 1010.8 |
| 20260902113805 | 67 | 316 | 7.0 | 10.0 | 0.00 | 0.00 | 0.00 | 22 | 1010.7 |
| 20260902113706 | 67 | 316 | 7.0 | 10.0 | 0.00 | 0.00 | 0.00 | 22 | 1010.8 |
| 20260902113606 | 67 | 316 | 7.0 | 10.0 | 0.00 | 0.00 | 0.00 | 22 | 1010.9 |
| 20260902113505 | 67 | 316 | 7.0 | 10.0 | 0.00 | 0.00 | 0.00 | 22 | 1010.7 |
| 20260902113406 | 67 | 316 | 7.0 | 10.0 | 0.00 | 0.00 | 0.00 | 22 | 1010.8 |
| 20260902113305 | 67 | 316 | 7.0 | 10.0 | 0.00 | 0.00 | 0.00 | 22 | 1010.8 |
| 20260902113206 | 67 | 316 | 7.0 | 10.0 | 0.00 | 0.00 | 0.00 | 22 | 1010.8 |
| 20260902113106 | 67 | 316 | 7.0 | 10.0 | 0.00 | 0.00 | 0.00 | 22 | 1010.9 |
| 20260902113005 | 67 | 316 | 7.0 | 10.0 | 0.00 | 0.00 | 0.00 | 22 | 1010.7 |
| 20260902112906 | 67 | 316 | 7.0 | 10.0 | 0.00 | 0.00 | 0.00 | 22 | 1010.8 |
| 20260902112806 | 67 | 316 | 7.0 | 10.0 | 0.00 | 0.00 | 0.00 | 22 | 1010.8 |
| 20260902112705 | 67 | 316 | 7.0 | 10.0 | 0.00 | 0.00 | 0.00 | 22 | 1010.8 |
| 20260902112606 | 67 | 316 | 7.0 | 10.0 | 0.00 | 0.00 | 0.00 | 22 | 1010.7 |
| 20260902112505 | 67 | 316 | 7.0 | 10.0 | 0.00 | 0.00 | 0.00 | 22 | 1010.7 |
| 20260902112405 | 67 | 316 | 7.0 | 10.0 | 0.00 | 0.00 | 0.00 | 22 | 1010.7 |
| 20260902112306 | 67 | 316 | 7.0 | 10.0 | 0.00 | 0.00 | 0.00 | 22 | 1010.7 |
| 20260902112206 | 67 | 316 | 7.0 | 10.0 | 0.00 | 0.00 | 0.00 | 22 | 1010.8 |
| 20260902112105 | 67 | 316 | 7.0 | 10.0 | 0.00 | 0.00 | 0.00 | 22 | 1010.7 |
| 20260902112005 | 67 | 316 | 7.0 | 10.0 | 0.00 | 0.00 | 0.00 | 22 | 1010.7 |
| 20260902111905 | 67 | 316 | 7.0 | 10.0 | 0.00 | 0.00 | 0.00 | 22 | 1010.6 |
| 20260902111806 | 67 | 316 | 7.0 | 10.0 | 0.00 | 0.00 | 0.00 | 22 | 1010.7 |
| 20260902111705 | 67 | 316 | 7.0 | 10.0 | 0.00 | 0.00 | 0.00 | 22 | 1010.8 |
| 20260902111606 | 67 | 316 | 7.0 | 10.0 | 0.00 | 0.00 | 0.00 | 22 | 1010.8 |
| 20260902111506 | 67 | 316 | 7.0 | 10.0 | 0.00 | 0.00 | 0.00 | 22 | 1010.8 |
| 20260902111405 | 67 | 316 | 7.0 | 10.0 | 0.00 | 0.00 | 0.00 | 22 | 1010.9 |
| 20260902111306 | 67 | 316 | 7.0 | 10.0 | 0.00 | 0.00 | 0.00 | 22 | 1010.8 |
| 20260902111206 | 67 | 316 | 7.0 | 10.0 | 0.00 | 0.00 | 0.00 | 22 | 1010.8 |
| 20260902111105 | 67 | 316 | 7.0 | 10.0 | 0.00 | 0.00 | 0.00 | 22 | 1010.8 |
| 20260902111006 | 67 | 316 | 7.0 | 10.0 | 0.00 | 0.00 | 0.00 | 22 | 1010.8 |
| 20260902110905 | 67 | 316 | 7.0 | 10.0 | 0.00 | 0.00 | 0.00 | 22 | 1010.8 |
| 20260902110806 | 67 | 316 | 7.0 | 10.0 | 0.00 | 0.00 | 0.00 | 22 | 1010.7 |
| 20260902110705 | 67 | 316 | 7.0 | 10.0 | 0.00 | 0.00 | 0.00 | 22 | 1010.7 |
| 20260902110605 | 67 | 316 | 7.0 | 10.0 | 0.00 | 0.00 | 0.00 | 22 | 1010.6 |
| 20260902110505 | 67 | 316 | 7.0 | 10.0 | 0.00 | 0.00 | 0.00 | 22 | 1010.6 |
| 20260902110406 | 67 | 316 | 7.0 | 10.0 | 0.00 | 0.00 | 0.00 | 22 | 1010.6 |
| 20260902110306 | 67 | 316 | 7.0 | 10.0 | 0.00 | 0.00 | 0.00 | 22 | 1010.6 |
| 20260902110205 | 67 | 316 | 7.0 | 10.0 | 0.00 | 0.00 | 0.00 | 22 | 1010.6 |
| 20260902110105 | 67 | 316 | 7.0 | 10.0 | 0.00 | 0.00 | 0.00 | 22 | 1010.6 |
| 20260902110008 | 67 | 316 | 7.0 | 10.0 | 0.00 | 0.00 | 0.00 | 22 | 1010.6 |
| 20260902105906 | 67 | 316 | 7.0 | 10.0 | 0.00 | 0.00 | 0.00 | 22 | 1010.6 |
| 20260902105805 | 67 | 316 | 7.0 | 10.0 | 0.00 | 0.00 | 0.00 | 22 | 1010.6 |
| 20260902105706 | 67 | 316 | 7.0 | 10.0 | 0.00 | 0.00 | 0.00 | 22 | 1010.6 |
| 20260902105605 | 67 | 316 | 7.0 | 10.0 | 0.00 | 0.00 | 0.00 | 22 | 1010.6 |
| 20260902105505 | 67 | 316 | 7.0 | 10.0 | 0.00 | 0.00 | 0.00 | 22 | 1010.7 |
| 20260902105405 | 67 | 316 | 7.0 | 10.0 | 0.00 | 0.00 | 0.00 | 22 | 1010.7 |
| 20260902105306 | 67 | 316 | 7.0 | 10.0 | 0.00 | 0.00 | 0.00 | 22 | 1010.6 |
| 20260902105205 | 67 | 316 | 7.0 | 10.0 | 0.00 | 0.00 | 0.00 | 22 | 1010.6 |
| 20260902105105 | 67 | 316 | 7.0 | 10.0 | 0.00 | 0.00 | 0.00 | 22 | 1010.6 |
| 20260902104505 | 67 | 316 | 7.0 | 10.0 | 0.00 | 0.00 | 0.00 | 22 | 1010.7 |
| 20260902104406 | 67 | 316 | 7.0 | 10.0 | 0.00 | 0.00 | 0.00 | 22 | 1010.6 |
| 20260902104305 | 67 | 316 | 7.0 | 10.0 | 0.00 | 0.00 | 0.00 | 22 | 1010.7 |
| 20260902104205 | 67 | 316 | 7.0 | 10.0 | 0.00 | 0.00 | 0.00 | 22 | 1010.6 |
| 20260902104106 | 67 | 316 | 7.0 | 10.0 | 0.00 | 0.00 | 0.00 | 22 | 1010.6 |
| 20260902104006 | 67 | 316 | 7.0 | 10.0 | 0.00 | 0.00 | 0.00 | 22 | 1010.6 |
| 20260902103905 | 67 | 316 | 7.0 | 10.0 | 0.00 | 0.00 | 0.00 | 22 | 1010.5 |
| 20260902103805 | 67 | 316 | 7.0 | 10.0 | 0.00 | 0.00 | 0.00 | 22 | 1010.5 |
| 20260902103706 | 67 | 316 | 7.0 | 10.0 | 0.00 | 0.00 | 0.00 | 22 | 1010.5 |
| 20260902103605 | 67 | 316 | 7.0 | 10.0 | 0.00 | 0.00 | 0.00 | 22 | 1010.5 |
| 20260902103505 | 67 | 316 | 7.0 | 10.0 | 0.00 | 0.00 | 0.00 | 22 | 1010.5 |
| 20260902103406 | 67 | 316 | 7.0 | 10.0 | 0.00 | 0.00 | 0.00 | 22 | 1010.5 |
| 20260902103306 | 67 | 316 | 7.0 | 10.0 | 0.00 | 0.00 | 0.00 | 22 | 1010.5 |
| 20260902103205 | 67 | 316 | 7.0 | 10.0 | 0.00 | 0.00 | 0.00 | 22 | 1010.7 |
| 20260902103106 | 67 | 316 | 7.0 | 10.0 | 0.00 | 0.00 | 0.00 | 22 | 1010.5 |
| 20260902103006 | 67 | 316 | 7.0 | 10.0 | 0.00 | 0.00 | 0.00 | 22 | 1010.5 |
| 20260902102905 | 67 | 316 | 7.0 | 10.0 | 0.00 | 0.00 | 0.00 | 22 | 1010.5 |
| 20260902102806 | 67 | 316 | 7.0 | 10.0 | 0.00 | 0.00 | 0.00 | 22 | 1010.6 |
| 20260902102705 | 67 | 316 | 7.0 | 10.0 | 0.00 | 0.00 | 0.00 | 22 | 1010.4 |
| 20260902102606 | 67 | 316 | 7.0 | 10.0 | 0.00 | 0.00 | 0.00 | 22 | 1010.6 |
| 20260902102506 | 67 | 316 | 7.0 | 10.0 | 0.00 | 0.00 | 0.00 | 22 | 1010.5 |
| 20260902102405 | 67 | 316 | 7.0 | 10.0 | 0.00 | 0.00 | 0.00 | 22 | 1010.4 |
| 20260902102307 | 67 | 316 | 7.0 | 10.0 | 0.00 | 0.00 | 0.00 | 22 | 1010.4 |
| 20260902102206 | 67 | 316 | 7.0 | 10.0 | 0.00 | 0.00 | 0.00 | 22 | 1010.4 |
| 20260902102105 | 67 | 316 | 7.0 | 10.0 | 0.00 | 0.00 | 0.00 | 22 | 1010.4 |
| 20260902102006 | 67 | 316 | 7.0 | 10.0 | 0.00 | 0.00 | 0.00 | 22 | 1010.2 |
| 20260902101905 | 67 | 316 | 7.0 | 10.0 | 0.00 | 0.00 | 0.00 | 22 | 1010.3 |
| 20260902101806 | 67 | 316 | 7.0 | 10.0 | 0.00 | 0.00 | 0.00 | 22 | 1010.3 |
| 20260902101706 | 67 | 316 | 7.0 | 10.0 | 0.00 | 0.00 | 0.00 | 22 | 1010.2 |
| 20260902101605 | 67 | 316 | 7.0 | 10.0 | 0.00 | 0.00 | 0.00 | 22 | 1010.3 |
| 20260902101505 | 67 | 316 | 7.0 | 10.0 | 0.00 | 0.00 | 0.00 | 22 | 1010.3 |
| 20260902101406 | 67 | 316 | 7.0 | 10.0 | 0.00 | 0.00 | 0.00 | 22 | 1010.4 |
| 20260902101305 | 67 | 316 | 7.0 | 10.0 | 0.00 | 0.00 | 0.00 | 22 | 1010.3 |
| 20260902101205 | 67 | 316 | 7.0 | 10.0 | 0.00 | 0.00 | 0.00 | 22 | 1010.3 |
| 20260902101106 | 67 | 316 | 7.0 | 10.0 | 0.00 | 0.00 | 0.00 | 22 | 1010.3 |
| 20260902101005 | 67 | 316 | 7.0 | 10.0 | 0.00 | 0.00 | 0.00 | 22 | 1010.2 |
| 20260902100905 | 67 | 316 | 7.0 | 10.0 | 0.00 | 0.00 | 0.00 | 22 | 1010.2 |
| 20260902100806 | 67 | 316 | 7.0 | 10.0 | 0.00 | 0.00 | 0.00 | 22 | 1010.3 |
| 20260902100605 | 67 | 316 | 7.0 | 10.0 | 0.00 | 0.00 | 0.00 | 22 | 1010.1 |
| 20260902100505 | 67 | 316 | 7.0 | 10.0 | 0.00 | 0.00 | 0.00 | 22 | 1010.3 |
| 20260902100406 | 67 | 316 | 7.0 | 10.0 | 0.00 | 0.00 | 0.00 | 22 | 1010.2 |
| 20260902100305 | 67 | 316 | 7.0 | 10.0 | 0.00 | 0.00 | 0.00 | 22 | 1010.2 |
| 20260902100106 | 67 | 316 | 7.0 | 10.0 | 0.00 | 0.00 | 0.00 | 22 | 1010.2 |
| 20260902100005 | 67 | 316 | 7.0 | 10.0 | 0.00 | 0.00 | 0.00 | 22 | 1010.1 |
| 20260902095906 | 67 | 316 | 7.0 | 10.0 | 0.00 | 0.00 | 0.00 | 22 | 1010.3 |
| 20260902095806 | 67 | 316 | 7.0 | 10.0 | 0.00 | 0.00 | 0.00 | 22 | 1010.2 |
| 20260902095705 | 67 | 316 | 7.0 | 10.0 | 0.00 | 0.00 | 0.00 | 22 | 1010.1 |
| 20260902095606 | 67 | 316 | 7.0 | 10.0 | 0.00 | 0.00 | 0.00 | 22 | 1010.1 |
| 20260902095505 | 67 | 316 | 7.0 | 10.0 | 0.00 | 0.00 | 0.00 | 22 | 1010.2 |
| 20260902095405 | 67 | 316 | 7.0 | 10.0 | 0.00 | 0.00 | 0.00 | 22 | 1010.0 |
| 20260902095307 | 67 | 316 | 7.0 | 10.0 | 0.00 | 0.00 | 0.00 | 22 | 1010.2 |
| 20260902095206 | 67 | 316 | 7.0 | 10.0 | 0.00 | 0.00 | 0.00 | 22 | 1010.2 |
| 20260902095005 | 67 | 316 | 7.0 | 10.0 | 0.00 | 0.00 | 0.00 | 22 | 1010.2 |
| 20260902094906 | 67 | 316 | 7.0 | 10.0 | 0.00 | 0.00 | 0.00 | 22 | 1010.1 |
| 20260902094806 | 67 | 316 | 7.0 | 10.0 | 0.00 | 0.00 | 0.00 | 22 | 1010.1 |
| 20260902094705 | 67 | 316 | 7.0 | 10.0 | 0.00 | 0.00 | 0.00 | 22 | 1010.1 |
| 20260902094606 | 67 | 316 | 7.0 | 10.0 | 0.00 | 0.00 | 0.00 | 22 | 1010.1 |
| 20260902094505 | 67 | 316 | 7.0 | 10.0 | 0.00 | 0.00 | 0.00 | 22 | 1010.0 |
| 20260902094405 | 67 | 316 | 7.0 | 10.0 | 0.00 | 0.00 | 0.00 | 22 | 1010.0 |
| 20260902094306 | 67 | 316 | 7.0 | 10.0 | 0.00 | 0.00 | 0.00 | 22 | 1010.1 |
| 20260902094205 | 67 | 316 | 7.0 | 10.0 | 0.00 | 0.00 | 0.00 | 22 | 1010.0 |
| 20260902094106 | 67 | 316 | 7.0 | 10.0 | 0.00 | 0.00 | 0.00 | 22 | 1010.1 |
| 20260902094006 | 67 | 316 | 7.0 | 10.0 | 0.00 | 0.00 | 0.00 | 22 | 1010.2 |
| 20260902093905 | 67 | 316 | 7.0 | 10.0 | 0.00 | 0.00 | 0.00 | 22 | 1010.2 |
| 20260902093805 | 67 | 316 | 7.0 | 10.0 | 0.00 | 0.00 | 0.00 | 22 | 1010.1 |
| 20260902093706 | 67 | 316 | 7.0 | 10.0 | 0.00 | 0.00 | 0.00 | 22 | 1010.1 |
| 20260902093605 | 67 | 316 | 7.0 | 10.0 | 0.00 | 0.00 | 0.00 | 22 | 1010.1 |
| 20260902093505 | 67 | 316 | 7.0 | 10.0 | 0.00 | 0.00 | 0.00 | 22 | 1010.0 |
| 20260902093405 | 67 | 316 | 7.0 | 10.0 | 0.00 | 0.00 | 0.00 | 22 | 1010.0 |
| 20260902093306 | 67 | 316 | 7.0 | 10.0 | 0.00 | 0.00 | 0.00 | 22 | 1010.0 |
| 20260902093205 | 67 | 316 | 7.0 | 10.0 | 0.00 | 0.00 | 0.00 | 22 | 1010.0 |
| 20260902093105 | 67 | 316 | 7.0 | 10.0 | 0.00 | 0.00 | 0.00 | 22 | 1010.0 |
| 20260902093005 | 67 | 316 | 7.0 | 10.0 | 0.00 | 0.00 | 0.00 | 22 | 1009.9 |
| 20260902092906 | 67 | 316 | 7.0 | 10.0 | 0.00 | 0.00 | 0.00 | 22 | 1010.0 |
| 20260902092805 | 67 | 316 | 7.0 | 10.0 | 0.00 | 0.00 | 0.00 | 22 | 1010.0 |
| 20260902092205 | 67 | 316 | 7.0 | 10.0 | 0.00 | 0.00 | 0.00 | 22 | 1010.0 |
| 20260902092106 | 67 | 316 | 7.0 | 10.0 | 0.00 | 0.00 | 0.00 | 22 | 1010.2 |
| 20260902092006 | 67 | 316 | 7.0 | 10.0 | 0.00 | 0.00 | 0.00 | 22 | 1010.1 |
| 20260902091905 | 67 | 316 | 7.0 | 10.0 | 0.00 | 0.00 | 0.00 | 22 | 1010.1 |
| 20260902091806 | 67 | 316 | 7.0 | 10.0 | 0.00 | 0.00 | 0.00 | 22 | 1010.1 |
| 20260902091705 | 67 | 316 | 7.0 | 10.0 | 0.00 | 0.00 | 0.00 | 22 | 1010.0 |
| 20260902091605 | 67 | 316 | 7.0 | 10.0 | 0.00 | 0.00 | 0.00 | 22 | 1010.1 |
| 20260902091506 | 67 | 316 | 7.0 | 10.0 | 0.00 | 0.00 | 0.00 | 22 | 1010.1 |
| 20260902091405 | 67 | 316 | 7.0 | 10.0 | 0.00 | 0.00 | 0.00 | 22 | 1010.0 |
| 20260902091305 | 67 | 316 | 7.0 | 10.0 | 0.00 | 0.00 | 0.00 | 22 | 1010.0 |
| 20260902091206 | 67 | 316 | 7.0 | 10.0 | 0.00 | 0.00 | 0.00 | 22 | 1010.0 |
| 20260902091106 | 67 | 316 | 7.0 | 10.0 | 0.00 | 0.00 | 0.00 | 22 | 1010.0 |
| 20260902091005 | 67 | 316 | 7.0 | 10.0 | 0.00 | 0.00 | 0.00 | 22 | 1010.0 |
| 20260902090905 | 67 | 316 | 7.0 | 10.0 | 0.00 | 0.00 | 0.00 | 22 | 1010.0 |
| 20260902090806 | 67 | 316 | 7.0 | 10.0 | 0.00 | 0.00 | 0.00 | 22 | 1009.9 |
| 20260902090705 | 67 | 316 | 7.0 | 10.0 | 0.00 | 0.00 | 0.00 | 22 | 1010.0 |
| 20260902090605 | 67 | 316 | 7.0 | 10.0 | 0.00 | 0.00 | 0.00 | 22 | 1010.0 |
| 20260902090506 | 67 | 316 | 7.0 | 10.0 | 0.00 | 0.00 | 0.00 | 22 | 1010.0 |
| 20260902090406 | 67 | 316 | 7.0 | 10.0 | 0.00 | 0.00 | 0.00 | 22 | 1009.9 |
| 20260902090305 | 67 | 316 | 7.0 | 10.0 | 0.00 | 0.00 | 0.00 | 22 | 1010.1 |
| 20260902090205 | 67 | 316 | 7.0 | 10.0 | 0.00 | 0.00 | 0.00 | 22 | 1010.0 |
| 20260902090106 | 67 | 316 | 7.0 | 10.0 | 0.00 | 0.00 | 0.00 | 22 | 1010.1 |
| 20260902090005 | 67 | 316 | 7.0 | 10.0 | 0.00 | 0.00 | 0.00 | 22 | 1010.0 |
| 20260902085905 | 67 | 316 | 7.0 | 10.0 | 0.00 | 0.00 | 0.00 | 22 | 1010.2 |
| 20260902085805 | 67 | 316 | 7.0 | 10.0 | 0.00 | 0.00 | 0.00 | 22 | 1010.0 |
| 20260902085706 | 67 | 316 | 7.0 | 10.0 | 0.00 | 0.00 | 0.00 | 22 | 1010.1 |
| 20260902085605 | 67 | 316 | 7.0 | 10.0 | 0.00 | 0.00 | 0.00 | 22 | 1010.2 |
| 20260902085505 | 67 | 316 | 7.0 | 10.0 | 0.00 | 0.00 | 0.00 | 22 | 1010.2 |
| 20260902085406 | 67 | 316 | 7.0 | 10.0 | 0.00 | 0.00 | 0.00 | 22 | 1010.2 |
| 20260902085306 | 67 | 316 | 7.0 | 10.0 | 0.00 | 0.00 | 0.00 | 22 | 1010.2 |
| 20260902085205 | 67 | 316 | 7.0 | 10.0 | 0.00 | 0.00 | 0.00 | 22 | 1010.2 |
| 20260902085106 | 67 | 316 | 7.0 | 10.0 | 0.00 | 0.00 | 0.00 | 22 | 1010.1 |
| 20260902085005 | 67 | 316 | 7.0 | 10.0 | 0.00 | 0.00 | 0.00 | 22 | 1010.1 |
| 20260902084905 | 67 | 316 | 7.0 | 10.0 | 0.00 | 0.00 | 0.00 | 22 | 1010.1 |
| 20260902084806 | 67 | 316 | 7.0 | 10.0 | 0.00 | 0.00 | 0.00 | 22 | 1010.3 |
| 20260902084705 | 67 | 316 | 7.0 | 10.0 | 0.00 | 0.00 | 0.00 | 22 | 1010.2 |
| 20260902084605 | 67 | 316 | 7.0 | 10.0 | 0.00 | 0.00 | 0.00 | 22 | 1010.1 |
| 20260902084505 | 67 | 316 | 7.0 | 10.0 | 0.00 | 0.00 | 0.00 | 22 | 1010.1 |
| 20260902083906 | 67 | 316 | 7.0 | 10.0 | 0.00 | 0.00 | 0.00 | 22 | 1010.2 |
| 20260902083805 | 67 | 316 | 7.0 | 10.0 | 0.00 | 0.00 | 0.00 | 22 | 1010.1 |
| 20260902083705 | 67 | 316 | 7.0 | 10.0 | 0.00 | 0.00 | 0.00 | 22 | 1010.1 |
| 20260902083605 | 67 | 316 | 7.0 | 10.0 | 0.00 | 0.00 | 0.00 | 22 | 1010.2 |
| 20260902083506 | 67 | 316 | 7.0 | 10.0 | 0.00 | 0.00 | 0.00 | 22 | 1010.2 |
| 20260902083405 | 67 | 316 | 7.0 | 10.0 | 0.00 | 0.00 | 0.00 | 22 | 1010.2 |
| 20260902083305 | 67 | 316 | 7.0 | 10.0 | 0.00 | 0.00 | 0.00 | 22 | 1010.2 |
| 20260902083206 | 67 | 316 | 7.0 | 10.0 | 0.00 | 0.00 | 0.00 | 22 | 1010.2 |
| 20260902083105 | 67 | 316 | 7.0 | 10.0 | 0.00 | 0.00 | 0.00 | 22 | 1010.2 |
| 20260902083005 | 67 | 316 | 7.0 | 10.0 | 0.00 | 0.00 | 0.00 | 22 | 1010.2 |
| 20260902082906 | 67 | 316 | 7.0 | 10.0 | 0.00 | 0.00 | 0.00 | 22 | 1010.2 |
| 20260902082805 | 67 | 316 | 7.0 | 10.0 | 0.00 | 0.00 | 0.00 | 22 | 1010.2 |
| 20260902082705 | 67 | 316 | 7.0 | 10.0 | 0.00 | 0.00 | 0.00 | 22 | 1010.2 |
| 20260902082606 | 67 | 316 | 7.0 | 10.0 | 0.00 | 0.00 | 0.00 | 22 | 1010.2 |
| 20260902082505 | 67 | 316 | 7.0 | 10.0 | 0.00 | 0.00 | 0.00 | 22 | 1010.4 |
| 20260902082405 | 67 | 316 | 7.0 | 10.0 | 0.00 | 0.00 | 0.00 | 22 | 1010.3 |
| 20260902082309 | 67 | 316 | 7.0 | 10.0 | 0.00 | 0.00 | 0.00 | 22 | 1010.2 |
| 20260902082206 | 67 | 316 | 7.0 | 10.0 | 0.00 | 0.00 | 0.00 | 22 | 1010.3 |
| 20260902082105 | 67 | 316 | 7.0 | 10.0 | 0.00 | 0.00 | 0.00 | 22 | 1010.3 |
| 20260902082006 | 67 | 316 | 7.0 | 10.0 | 0.00 | 0.00 | 0.00 | 22 | 1010.2 |
| 20260902081906 | 67 | 316 | 7.0 | 10.0 | 0.00 | 0.00 | 0.00 | 22 | 1010.2 |
| 20260902081805 | 67 | 316 | 7.0 | 10.0 | 0.00 | 0.00 | 0.00 | 22 | 1010.2 |
| 20260902081605 | 67 | 316 | 7.0 | 10.0 | 0.00 | 0.00 | 0.00 | 22 | 1010.2 |
| 20260902081505 | 67 | 316 | 7.0 | 10.0 | 0.00 | 0.00 | 0.00 | 22 | 1010.1 |
| 20260902081405 | 67 | 316 | 7.0 | 10.0 | 0.00 | 0.00 | 0.00 | 22 | 1010.2 |
| 20260902081306 | 67 | 316 | 7.0 | 10.0 | 0.00 | 0.00 | 0.00 | 22 | 1010.2 |
| 20260902081205 | 67 | 316 | 7.0 | 10.0 | 0.00 | 0.00 | 0.00 | 22 | 1010.1 |
| 20260902081105 | 67 | 316 | 7.0 | 10.0 | 0.00 | 0.00 | 0.00 | 22 | 1010.1 |
| 20260902081006 | 67 | 316 | 7.0 | 10.0 | 0.00 | 0.00 | 0.00 | 22 | 1010.1 |
| 20260902080905 | 67 | 316 | 7.0 | 10.0 | 0.00 | 0.00 | 0.00 | 22 | 1010.0 |
| 20260902080805 | 67 | 316 | 7.0 | 10.0 | 0.00 | 0.00 | 0.00 | 22 | 1010.1 |
| 20260902080706 | 67 | 316 | 7.0 | 10.0 | 0.00 | 0.00 | 0.00 | 22 | 1010.0 |
| 20260902080605 | 67 | 316 | 7.0 | 10.0 | 0.00 | 0.00 | 0.00 | 22 | 1010.0 |
| 20260902080505 | 67 | 316 | 7.0 | 10.0 | 0.00 | 0.00 | 0.00 | 22 | 1010.0 |
| 20260902080406 | 67 | 316 | 7.0 | 10.0 | 0.00 | 0.00 | 0.00 | 22 | 1010.1 |
| 20260902080305 | 67 | 316 | 7.0 | 10.0 | 0.00 | 0.00 | 0.00 | 22 | 1010.1 |
| 20260902080205 | 67 | 316 | 7.0 | 10.0 | 0.00 | 0.00 | 0.00 | 22 | 1010.1 |
| 20260902080106 | 67 | 316 | 7.0 | 10.0 | 0.00 | 0.00 | 0.00 | 22 | 1010.0 |
| 20260902080005 | 67 | 316 | 7.0 | 10.0 | 0.00 | 0.00 | 0.00 | 22 | 1010.0 |
| 20260902075905 | 67 | 316 | 7.0 | 10.0 | 0.00 | 0.00 | 0.00 | 22 | 1010.0 |
| 20260902075806 | 67 | 316 | 7.0 | 10.0 | 0.00 | 0.00 | 0.00 | 22 | 1009.9 |
| 20260902075705 | 67 | 316 | 7.0 | 10.0 | 0.00 | 0.00 | 0.00 | 22 | 1009.9 |
| 20260902075506 | 67 | 316 | 7.0 | 10.0 | 0.00 | 0.00 | 0.00 | 22 | 1009.9 |
| 20260902075405 | 67 | 316 | 7.0 | 10.0 | 0.00 | 0.00 | 0.00 | 22 | 1010.0 |
| 20260902075306 | 67 | 316 | 7.0 | 10.0 | 0.00 | 0.00 | 0.00 | 22 | 1009.9 |
| 20260902075206 | 67 | 316 | 7.0 | 10.0 | 0.00 | 0.00 | 0.00 | 22 | 1009.9 |
| 20260902075105 | 67 | 316 | 7.0 | 10.0 | 0.00 | 0.00 | 0.00 | 22 | 1009.9 |
| 20260902075006 | 67 | 316 | 7.0 | 10.0 | 0.00 | 0.00 | 0.00 | 22 | 1009.9 |
| 20260902074506 | 67 | 316 | 7.0 | 10.0 | 0.00 | 0.00 | 0.00 | 22 | 1009.8 |
| 20260902074405 | 67 | 316 | 7.0 | 10.0 | 0.00 | 0.00 | 0.00 | 22 | 1009.8 |
| 20260902074305 | 67 | 316 | 7.0 | 10.0 | 0.00 | 0.00 | 0.00 | 22 | 1009.9 |
| 20260902074206 | 67 | 316 | 7.0 | 10.0 | 0.00 | 0.00 | 0.00 | 22 | 1009.8 |
| 20260902074105 | 67 | 316 | 7.0 | 10.0 | 0.00 | 0.00 | 0.00 | 22 | 1009.8 |
| 20260902074005 | 67 | 316 | 7.0 | 10.0 | 0.00 | 0.00 | 0.00 | 22 | 1009.9 |
| 20260902073905 | 67 | 316 | 7.0 | 10.0 | 0.00 | 0.00 | 0.00 | 22 | 1009.9 |
| 20260902073806 | 67 | 316 | 7.0 | 10.0 | 0.00 | 0.00 | 0.00 | 22 | 1009.8 |
| 20260902073705 | 67 | 316 | 7.0 | 10.0 | 0.00 | 0.00 | 0.00 | 22 | 1009.8 |
| 20260902073605 | 67 | 316 | 7.0 | 10.0 | 0.00 | 0.00 | 0.00 | 22 | 1009.7 |
| 20260902073505 | 67 | 316 | 7.0 | 10.0 | 0.00 | 0.00 | 0.00 | 22 | 1009.9 |
| 20260902073406 | 67 | 316 | 7.0 | 10.0 | 0.00 | 0.00 | 0.00 | 22 | 1009.9 |
| 20260902073306 | 67 | 316 | 7.0 | 10.0 | 0.00 | 0.00 | 0.00 | 22 | 1009.7 |
| 20260902073205 | 67 | 316 | 7.0 | 10.0 | 0.00 | 0.00 | 0.00 | 22 | 1009.7 |
| 20260902073106 | 67 | 316 | 7.0 | 10.0 | 0.00 | 0.00 | 0.00 | 22 | 1009.6 |
| 20260902073005 | 67 | 316 | 7.0 | 10.0 | 0.00 | 0.00 | 0.00 | 22 | 1009.6 |
| 20260902072905 | 67 | 316 | 7.0 | 10.0 | 0.00 | 0.00 | 0.00 | 22 | 1009.7 |
| 20260902072806 | 67 | 316 | 7.0 | 10.0 | 0.00 | 0.00 | 0.00 | 22 | 1009.7 |
| 20260902072705 | 67 | 316 | 7.0 | 10.0 | 0.00 | 0.00 | 0.00 | 22 | 1009.7 |
| 20260902072605 | 67 | 316 | 7.0 | 10.0 | 0.00 | 0.00 | 0.00 | 22 | 1009.6 |
| 20260902072505 | 67 | 316 | 7.0 | 10.0 | 0.00 | 0.00 | 0.00 | 22 | 1009.5 |
| 20260902072406 | 67 | 316 | 7.0 | 10.0 | 0.00 | 0.00 | 0.00 | 22 | 1009.7 |
| 20260902072309 | 67 | 316 | 7.0 | 10.0 | 0.00 | 0.00 | 0.00 | 22 | 1009.8 |
| 20260902072205 | 67 | 316 | 7.0 | 10.0 | 0.00 | 0.00 | 0.00 | 22 | 1009.8 |
| 20260902072106 | 67 | 316 | 7.0 | 10.0 | 0.00 | 0.00 | 0.00 | 22 | 1009.7 |
| 20260902072005 | 67 | 316 | 7.0 | 10.0 | 0.00 | 0.00 | 0.00 | 22 | 1009.7 |
| 20260902071905 | 67 | 316 | 7.0 | 10.0 | 0.00 | 0.00 | 0.00 | 22 | 1009.7 |
| 20260902071806 | 67 | 316 | 7.0 | 10.0 | 0.00 | 0.00 | 0.00 | 22 | 1009.7 |
| 20260902071706 | 67 | 316 | 7.0 | 10.0 | 0.00 | 0.00 | 0.00 | 22 | 1009.5 |
| 20260902071605 | 67 | 316 | 7.0 | 10.0 | 0.00 | 0.00 | 0.00 | 22 | 1009.7 |
| 20260902071506 | 67 | 316 | 7.0 | 10.0 | 0.00 | 0.00 | 0.00 | 22 | 1009.7 |
| 20260902071405 | 67 | 316 | 7.0 | 10.0 | 0.00 | 0.00 | 0.00 | 22 | 1009.7 |
| 20260902071305 | 67 | 316 | 7.0 | 10.0 | 0.00 | 0.00 | 0.00 | 22 | 1009.5 |
| 20260902071206 | 67 | 316 | 7.0 | 10.0 | 0.00 | 0.00 | 0.00 | 22 | 1009.7 |
| 20260902071105 | 67 | 316 | 7.0 | 10.0 | 0.00 | 0.00 | 0.00 | 22 | 1009.7 |
| 20260902071005 | 67 | 316 | 7.0 | 10.0 | 0.00 | 0.00 | 0.00 | 22 | 1009.7 |
| 20260902070905 | 67 | 316 | 7.0 | 10.0 | 0.00 | 0.00 | 0.00 | 22 | 1009.6 |
| 20260902070806 | 67 | 316 | 7.0 | 10.0 | 0.00 | 0.00 | 0.00 | 22 | 1009.7 |
| 20260902070705 | 67 | 316 | 7.0 | 10.0 | 0.00 | 0.00 | 0.00 | 22 | 1009.7 |
| 20260902070605 | 67 | 316 | 7.0 | 10.0 | 0.00 | 0.00 | 0.00 | 22 | 1009.6 |
| 20260902070506 | 67 | 316 | 7.0 | 10.0 | 0.00 | 0.00 | 0.00 | 22 | 1009.7 |
| 20260902070405 | 67 | 316 | 7.0 | 10.0 | 0.00 | 0.00 | 0.00 | 22 | 1009.6 |
| 20260902070305 | 67 | 316 | 7.0 | 10.0 | 0.00 | 0.00 | 0.00 | 22 | 1009.6 |
| 20260902070205 | 67 | 316 | 7.0 | 10.0 | 0.00 | 0.00 | 0.00 | 22 | 1009.6 |
| 20260902070105 | 67 | 316 | 7.0 | 10.0 | 0.00 | 0.00 | 0.00 | 22 | 1009.5 |
| 20260902070009 | 67 | 316 | 7.0 | 10.0 | 0.00 | 0.00 | 0.00 | 22 | 1009.6 |
| 20260902065905 | 67 | 316 | 7.0 | 10.0 | 0.00 | 0.00 | 0.00 | 22 | 1009.6 |
| 20260902065706 | 67 | 316 | 7.0 | 10.0 | 0.00 | 0.00 | 0.00 | 22 | 1009.6 |
| 20260902065605 | 67 | 316 | 7.0 | 10.0 | 0.00 | 0.00 | 0.00 | 22 | 1009.6 |
| 20260902065505 | 67 | 316 | 7.0 | 10.0 | 0.00 | 0.00 | 0.00 | 22 | 1009.5 |
| 20260902065405 | 67 | 316 | 7.0 | 10.0 | 0.00 | 0.00 | 0.00 | 22 | 1009.6 |
| 20260902065205 | 67 | 316 | 7.0 | 10.0 | 0.00 | 0.00 | 0.00 | 22 | 1009.6 |
| 20260902065105 | 67 | 316 | 7.0 | 10.0 | 0.00 | 0.00 | 0.00 | 22 | 1009.6 |
| 20260902065006 | 67 | 316 | 7.0 | 10.0 | 0.00 | 0.00 | 0.00 | 22 | 1009.6 |
| 20260902064905 | 67 | 316 | 7.0 | 10.0 | 0.00 | 0.00 | 0.00 | 22 | 1009.6 |
| 20260902064805 | 67 | 316 | 7.0 | 10.0 | 0.00 | 0.00 | 0.00 | 22 | 1009.6 |
| 20260902064706 | 67 | 316 | 7.0 | 10.0 | 0.00 | 0.00 | 0.00 | 22 | 1009.6 |
| 20260902064605 | 67 | 316 | 7.0 | 10.0 | 0.00 | 0.00 | 0.00 | 22 | 1009.7 |
| 20260902064505 | 67 | 316 | 7.0 | 10.0 | 0.00 | 0.00 | 0.00 | 22 | 1009.7 |
| 20260902064406 | 67 | 316 | 7.0 | 10.0 | 0.00 | 0.00 | 0.00 | 22 | 1009.7 |
| 20260902064305 | 67 | 316 | 7.0 | 10.0 | 0.00 | 0.00 | 0.00 | 22 | 1009.6 |
| 20260902063606 | 67 | 316 | 7.0 | 10.0 | 0.00 | 0.00 | 0.00 | 22 | 1009.6 |
| 20260902063505 | 67 | 316 | 7.0 | 10.0 | 0.00 | 0.00 | 0.00 | 22 | 1009.6 |
| 20260902063406 | 67 | 316 | 7.0 | 10.0 | 0.00 | 0.00 | 0.00 | 22 | 1009.5 |
| 20260902063305 | 67 | 316 | 7.0 | 10.0 | 0.00 | 0.00 | 0.00 | 22 | 1009.5 |
| 20260902063206 | 67 | 316 | 7.0 | 10.0 | 0.00 | 0.00 | 0.00 | 22 | 1009.5 |
| 20260902063105 | 67 | 316 | 7.0 | 10.0 | 0.00 | 0.00 | 0.00 | 22 | 1009.4 |
| 20260902063006 | 67 | 316 | 7.0 | 10.0 | 0.00 | 0.00 | 0.00 | 22 | 1009.4 |
| 20260902062505 | 67 | 316 | 7.0 | 10.0 | 0.00 | 0.00 | 0.00 | 22 | 1009.4 |
| 20260902062005 | 67 | 316 | 7.0 | 10.0 | 0.00 | 0.00 | 0.00 | 22 | 1009.4 |
| 20260902061905 | 67 | 316 | 7.0 | 10.0 | 0.00 | 0.00 | 0.00 | 22 | 1009.4 |
| 20260902061805 | 67 | 316 | 7.0 | 10.0 | 0.00 | 0.00 | 0.00 | 22 | 1009.4 |
| 20260902061706 | 67 | 316 | 7.0 | 10.0 | 0.00 | 0.00 | 0.00 | 22 | 1009.4 |
| 20260902061605 | 67 | 316 | 7.0 | 10.0 | 0.00 | 0.00 | 0.00 | 22 | 1009.4 |
| 20260902061505 | 67 | 316 | 7.0 | 10.0 | 0.00 | 0.00 | 0.00 | 22 | 1009.4 |
| 20260902061406 | 67 | 316 | 7.0 | 10.0 | 0.00 | 0.00 | 0.00 | 22 | 1009.3 |
| 20260902060905 | 67 | 316 | 7.0 | 10.0 | 0.00 | 0.00 | 0.00 | 22 | 1009.3 |
| 20260902060806 | 67 | 316 | 7.0 | 10.0 | 0.00 | 0.00 | 0.00 | 22 | 1009.4 |
| 20260902060305 | 67 | 316 | 7.0 | 10.0 | 0.00 | 0.00 | 0.00 | 22 | 1009.3 |
| 20260902060205 | 67 | 316 | 7.0 | 10.0 | 0.00 | 0.00 | 0.00 | 22 | 1009.3 |
| 20260902060106 | 67 | 316 | 7.0 | 10.0 | 0.00 | 0.00 | 0.00 | 22 | 1009.3 |
| 20260902060005 | 67 | 316 | 7.0 | 10.0 | 0.00 | 0.00 | 0.00 | 22 | 1009.4 |
| 20260902055906 | 67 | 316 | 7.0 | 10.0 | 0.00 | 0.00 | 0.00 | 22 | 1009.4 |
| 20260902055206 | 67 | 316 | 7.0 | 10.0 | 0.00 | 0.00 | 0.00 | 22 | 1009.4 |
| 20260902055105 | 67 | 316 | 7.0 | 10.0 | 0.00 | 0.00 | 0.00 | 22 | 1009.3 |
| 20260902055005 | 67 | 316 | 7.0 | 10.0 | 0.00 | 0.00 | 0.00 | 22 | 1009.3 |
| 20260902054906 | 67 | 316 | 7.0 | 10.0 | 0.00 | 0.00 | 0.00 | 22 | 1009.3 |
| 20260902054805 | 67 | 316 | 7.0 | 10.0 | 0.00 | 0.00 | 0.00 | 22 | 1009.4 |
| 20260902054705 | 67 | 316 | 7.0 | 10.0 | 0.00 | 0.00 | 0.00 | 22 | 1009.3 |
| 20260902054606 | 67 | 316 | 7.0 | 10.0 | 0.00 | 0.00 | 0.00 | 22 | 1009.3 |
| 20260902054505 | 67 | 316 | 7.0 | 10.0 | 0.00 | 0.00 | 0.00 | 22 | 1009.2 |
| 20260902054406 | 67 | 316 | 7.0 | 10.0 | 0.00 | 0.00 | 0.00 | 22 | 1009.2 |
| 20260902054305 | 67 | 316 | 7.0 | 10.0 | 0.00 | 0.00 | 0.00 | 22 | 1009.3 |
| 20260902054205 | 67 | 316 | 7.0 | 10.0 | 0.00 | 0.00 | 0.00 | 22 | 1009.1 |
| 20260902054106 | 67 | 316 | 7.0 | 10.0 | 0.00 | 0.00 | 0.00 | 22 | 1009.2 |
| 20260902054005 | 67 | 316 | 7.0 | 10.0 | 0.00 | 0.00 | 0.00 | 22 | 1009.0 |
| 20260902053506 | 67 | 316 | 7.0 | 10.0 | 0.00 | 0.00 | 0.00 | 22 | 1009.2 |
| 20260902053405 | 67 | 316 | 7.0 | 10.0 | 0.00 | 0.00 | 0.00 | 22 | 1009.1 |
| 20260902053306 | 67 | 316 | 7.0 | 10.0 | 0.00 | 0.00 | 0.00 | 22 | 1009.2 |
| 20260902053205 | 67 | 316 | 7.0 | 10.0 | 0.00 | 0.00 | 0.00 | 22 | 1009.3 |
| 20260902053105 | 67 | 316 | 7.0 | 10.0 | 0.00 | 0.00 | 0.00 | 22 | 1009.2 |
| 20260902053005 | 67 | 316 | 7.0 | 10.0 | 0.00 | 0.00 | 0.00 | 22 | 1009.3 |
| 20260902052505 | 67 | 316 | 7.0 | 10.0 | 0.00 | 0.00 | 0.00 | 22 | 1009.4 |
| 20260902052406 | 67 | 316 | 7.0 | 10.0 | 0.00 | 0.00 | 0.00 | 22 | 1009.4 |
| 20260902052307 | 67 | 316 | 7.0 | 10.0 | 0.00 | 0.00 | 0.00 | 22 | 1009.4 |
| 20260902052205 | 67 | 316 | 7.0 | 10.0 | 0.00 | 0.00 | 0.00 | 22 | 1009.4 |
| 20260902052106 | 67 | 316 | 7.0 | 10.0 | 0.00 | 0.00 | 0.00 | 22 | 1009.3 |
| 20260902052005 | 67 | 316 | 7.0 | 10.0 | 0.00 | 0.00 | 0.00 | 22 | 1009.4 |
| 20260902051905 | 67 | 316 | 7.0 | 10.0 | 0.00 | 0.00 | 0.00 | 22 | 1009.4 |
| 20260902051805 | 67 | 316 | 7.0 | 10.0 | 0.00 | 0.00 | 0.00 | 22 | 1009.4 |
| 20260902051705 | 67 | 316 | 7.0 | 10.0 | 0.00 | 0.00 | 0.00 | 22 | 1009.3 |
| 20260902051605 | 67 | 316 | 7.0 | 10.0 | 0.00 | 0.00 | 0.00 | 22 | 1009.4 |
| 20260902051505 | 67 | 316 | 7.0 | 10.0 | 0.00 | 0.00 | 0.00 | 22 | 1009.4 |
| 20260902051405 | 67 | 316 | 7.0 | 10.0 | 0.00 | 0.00 | 0.00 | 22 | 1009.4 |
| 20260902051306 | 67 | 316 | 7.0 | 10.0 | 0.00 | 0.00 | 0.00 | 22 | 1009.3 |
| 20260902051205 | 67 | 316 | 7.0 | 10.0 | 0.00 | 0.00 | 0.00 | 22 | 1009.2 |
| 20260902051106 | 67 | 316 | 7.0 | 10.0 | 0.00 | 0.00 | 0.00 | 22 | 1009.4 |
| 20260902050905 | 67 | 316 | 7.0 | 10.0 | 0.00 | 0.00 | 0.00 | 22 | 1009.4 |
| 20260902050806 | 67 | 316 | 7.0 | 10.0 | 0.00 | 0.00 | 0.00 | 22 | 1009.4 |
| 20260902050705 | 67 | 316 | 7.0 | 10.0 | 0.00 | 0.00 | 0.00 | 22 | 1009.4 |
| 20260902050606 | 67 | 316 | 7.0 | 10.0 | 0.00 | 0.00 | 0.00 | 22 | 1009.4 |
| 20260902050405 | 67 | 316 | 7.0 | 10.0 | 0.00 | 0.00 | 0.00 | 22 | 1009.4 |
| 20260902050306 | 67 | 316 | 7.0 | 10.0 | 0.00 | 0.00 | 0.00 | 22 | 1009.4 |
| 20260902050205 | 67 | 316 | 7.0 | 10.0 | 0.00 | 0.00 | 0.00 | 22 | 1009.3 |
| 20260902050106 | 67 | 316 | 7.0 | 10.0 | 0.00 | 0.00 | 0.00 | 22 | 1009.2 |
| 20260902050008 | 67 | 316 | 7.0 | 10.0 | 0.00 | 0.00 | 0.00 | 22 | 1009.2 |
| 20260902045906 | 67 | 316 | 7.0 | 10.0 | 0.00 | 0.00 | 0.00 | 22 | 1009.2 |
| 20260902045805 | 67 | 316 | 7.0 | 10.0 | 0.00 | 0.00 | 0.00 | 22 | 1009.3 |
| 20260902045705 | 67 | 316 | 7.0 | 10.0 | 0.00 | 0.00 | 0.00 | 22 | 1009.2 |
| 20260902045605 | 67 | 316 | 7.0 | 10.0 | 0.00 | 0.00 | 0.00 | 22 | 1009.4 |
| 20260902045505 | 67 | 316 | 7.0 | 10.0 | 0.00 | 0.00 | 0.00 | 22 | 1009.2 |
| 20260902045405 | 67 | 316 | 7.0 | 10.0 | 0.00 | 0.00 | 0.00 | 22 | 1009.1 |
| 20260902045306 | 67 | 316 | 7.0 | 10.0 | 0.00 | 0.00 | 0.00 | 22 | 1009.2 |
| 20260902045205 | 67 | 316 | 7.0 | 10.0 | 0.00 | 0.00 | 0.00 | 22 | 1009.1 |
| 20260902045105 | 67 | 316 | 7.0 | 10.0 | 0.00 | 0.00 | 0.00 | 22 | 1009.3 |
| 20260902045005 | 67 | 316 | 7.0 | 10.0 | 0.00 | 0.00 | 0.00 | 22 | 1009.2 |
| 20260902044906 | 67 | 316 | 7.0 | 10.0 | 0.00 | 0.00 | 0.00 | 22 | 1009.1 |
| 20260902044805 | 67 | 316 | 7.0 | 10.0 | 0.00 | 0.00 | 0.00 | 22 | 1009.1 |
| 20260902044705 | 67 | 316 | 7.0 | 10.0 | 0.00 | 0.00 | 0.00 | 22 | 1009.2 |
| 20260902044606 | 67 | 316 | 7.0 | 10.0 | 0.00 | 0.00 | 0.00 | 22 | 1009.2 |
| 20260902044505 | 67 | 316 | 7.0 | 10.0 | 0.00 | 0.00 | 0.00 | 22 | 1009.1 |
| 20260902044405 | 67 | 316 | 7.0 | 10.0 | 0.00 | 0.00 | 0.00 | 22 | 1009.1 |
| 20260902044306 | 67 | 316 | 7.0 | 10.0 | 0.00 | 0.00 | 0.00 | 22 | 1009.1 |
| 20260902044205 | 67 | 316 | 7.0 | 10.0 | 0.00 | 0.00 | 0.00 | 22 | 1009.1 |
| 20260902044106 | 67 | 316 | 7.0 | 10.0 | 0.00 | 0.00 | 0.00 | 22 | 1009.1 |
| 20260902044005 | 67 | 316 | 7.0 | 10.0 | 0.00 | 0.00 | 0.00 | 22 | 1009.1 |
| 20260902043906 | 67 | 316 | 7.0 | 10.0 | 0.00 | 0.00 | 0.00 | 22 | 1009.0 |
| 20260902043805 | 67 | 316 | 7.0 | 10.0 | 0.00 | 0.00 | 0.00 | 22 | 1009.1 |
| 20260902043705 | 67 | 316 | 7.0 | 10.0 | 0.00 | 0.00 | 0.00 | 22 | 1008.9 |
| 20260902043605 | 67 | 316 | 7.0 | 10.0 | 0.00 | 0.00 | 0.00 | 22 | 1008.9 |
| 20260902043505 | 67 | 316 | 7.0 | 10.0 | 0.00 | 0.00 | 0.00 | 22 | 1009.1 |
| 20260902043405 | 67 | 316 | 7.0 | 10.0 | 0.00 | 0.00 | 0.00 | 22 | 1008.9 |
| 20260902043306 | 67 | 316 | 7.0 | 10.0 | 0.00 | 0.00 | 0.00 | 22 | 1008.8 |
| 20260902043205 | 67 | 316 | 7.0 | 10.0 | 0.00 | 0.00 | 0.00 | 22 | 1009.0 |
| 20260902043105 | 67 | 316 | 7.0 | 10.0 | 0.00 | 0.00 | 0.00 | 22 | 1008.9 |
| 20260902043006 | 67 | 316 | 7.0 | 10.0 | 0.00 | 0.00 | 0.00 | 22 | 1008.9 |
| 20260902042905 | 67 | 316 | 7.0 | 10.0 | 0.00 | 0.00 | 0.00 | 22 | 1008.9 |
| 20260902042806 | 67 | 316 | 7.0 | 10.0 | 0.00 | 0.00 | 0.00 | 22 | 1008.9 |
| 20260902042705 | 67 | 316 | 7.0 | 10.0 | 0.00 | 0.00 | 0.00 | 22 | 1008.8 |
| 20260902042005 | 67 | 316 | 7.0 | 10.0 | 0.00 | 0.00 | 0.00 | 22 | 1008.8 |
| 20260902041906 | 67 | 316 | 7.0 | 10.0 | 0.00 | 0.00 | 0.00 | 22 | 1008.9 |
| 20260902041805 | 67 | 316 | 7.0 | 10.0 | 0.00 | 0.00 | 0.00 | 22 | 1008.7 |
| 20260902041705 | 67 | 316 | 7.0 | 10.0 | 0.00 | 0.00 | 0.00 | 22 | 1008.8 |
| 20260902041606 | 67 | 316 | 7.0 | 10.0 | 0.00 | 0.00 | 0.00 | 22 | 1008.7 |
| 20260902041505 | 67 | 316 | 7.0 | 10.0 | 0.00 | 0.00 | 0.00 | 22 | 1008.7 |
| 20260902041405 | 67 | 316 | 7.0 | 10.0 | 0.00 | 0.00 | 0.00 | 22 | 1008.8 |
| 20260902041305 | 67 | 316 | 7.0 | 10.0 | 0.00 | 0.00 | 0.00 | 22 | 1008.7 |
| 20260902041205 | 67 | 316 | 7.0 | 10.0 | 0.00 | 0.00 | 0.00 | 22 | 1008.6 |
| 20260902041106 | 67 | 316 | 7.0 | 10.0 | 0.00 | 0.00 | 0.00 | 22 | 1008.6 |
| 20260902041005 | 67 | 316 | 7.0 | 10.0 | 0.00 | 0.00 | 0.00 | 22 | 1008.6 |
| 20260902040906 | 67 | 316 | 7.0 | 10.0 | 0.00 | 0.00 | 0.00 | 22 | 1008.6 |
| 20260902040805 | 67 | 316 | 7.0 | 10.0 | 0.00 | 0.00 | 0.00 | 22 | 1008.5 |
| 20260902040705 | 67 | 316 | 7.0 | 10.0 | 0.00 | 0.00 | 0.00 | 22 | 1008.6 |
| 20260902040606 | 67 | 316 | 7.0 | 10.0 | 0.00 | 0.00 | 0.00 | 22 | 1008.6 |
| 20260902040505 | 67 | 316 | 7.0 | 10.0 | 0.00 | 0.00 | 0.00 | 22 | 1008.6 |
| 20260902040405 | 67 | 316 | 7.0 | 10.0 | 0.00 | 0.00 | 0.00 | 22 | 1008.6 |
| 20260902040305 | 67 | 316 | 7.0 | 10.0 | 0.00 | 0.00 | 0.00 | 22 | 1008.5 |
| 20260902040206 | 67 | 316 | 7.0 | 10.0 | 0.00 | 0.00 | 0.00 | 22 | 1008.5 |
| 20260902040105 | 67 | 316 | 7.0 | 10.0 | 0.00 | 0.00 | 0.00 | 22 | 1008.5 |
| 20260902040006 | 67 | 316 | 7.0 | 10.0 | 0.00 | 0.00 | 0.00 | 22 | 1008.4 |
| 20260902035905 | 67 | 316 | 7.0 | 10.0 | 0.00 | 0.00 | 0.00 | 22 | 1008.4 |
| 20260902035806 | 67 | 316 | 7.0 | 10.0 | 0.00 | 0.00 | 0.00 | 22 | 1008.4 |
| 20260902035705 | 67 | 316 | 7.0 | 10.0 | 0.00 | 0.00 | 0.00 | 22 | 1008.4 |
| 20260902035605 | 67 | 316 | 7.0 | 10.0 | 0.00 | 0.00 | 0.00 | 22 | 1008.4 |
| 20260902035506 | 67 | 316 | 7.0 | 10.0 | 0.00 | 0.00 | 0.00 | 22 | 1008.3 |
| 20260902035405 | 67 | 316 | 7.0 | 10.0 | 0.00 | 0.00 | 0.00 | 22 | 1008.4 |
| 20260902035306 | 67 | 316 | 7.0 | 10.0 | 0.00 | 0.00 | 0.00 | 22 | 1008.4 |
| 20260902034805 | 67 | 316 | 7.0 | 10.0 | 0.00 | 0.00 | 0.00 | 22 | 1008.3 |
| 20260902034706 | 67 | 316 | 7.0 | 10.0 | 0.00 | 0.00 | 0.00 | 22 | 1008.2 |
| 20260902034605 | 67 | 316 | 7.0 | 10.0 | 0.00 | 0.00 | 0.00 | 22 | 1008.3 |
| 20260902034505 | 67 | 316 | 7.0 | 10.0 | 0.00 | 0.00 | 0.00 | 22 | 1008.3 |
| 20260902034406 | 67 | 316 | 7.0 | 10.0 | 0.00 | 0.00 | 0.00 | 22 | 1008.2 |
| 20260902034205 | 67 | 316 | 7.0 | 10.0 | 0.00 | 0.00 | 0.00 | 22 | 1008.3 |
| 20260902034106 | 67 | 316 | 7.0 | 10.0 | 0.00 | 0.00 | 0.00 | 22 | 1008.2 |
| 20260902034005 | 67 | 316 | 7.0 | 10.0 | 0.00 | 0.00 | 0.00 | 22 | 1008.1 |
| 20260902033906 | 67 | 316 | 7.0 | 10.0 | 0.00 | 0.00 | 0.00 | 22 | 1008.2 |
| 20260902033805 | 67 | 316 | 7.0 | 10.0 | 0.00 | 0.00 | 0.00 | 22 | 1008.2 |
| 20260902033705 | 67 | 316 | 7.0 | 10.0 | 0.00 | 0.00 | 0.00 | 22 | 1008.1 |
| 20260902033605 | 67 | 316 | 7.0 | 10.0 | 0.00 | 0.00 | 0.00 | 22 | 1008.2 |
| 20260902033505 | 67 | 316 | 7.0 | 10.0 | 0.00 | 0.00 | 0.00 | 22 | 1008.0 |
| 20260902033405 | 67 | 316 | 7.0 | 10.0 | 0.00 | 0.00 | 0.00 | 22 | 1008.2 |
| 20260902033305 | 67 | 316 | 7.0 | 10.0 | 0.00 | 0.00 | 0.00 | 22 | 1008.1 |
| 20260902033205 | 67 | 316 | 7.0 | 10.0 | 0.00 | 0.00 | 0.00 | 22 | 1008.1 |
| 20260902033106 | 67 | 319 | 7.0 | 10.0 | 0.00 | 0.00 | 0.00 | 22 | 1008.1 |
| 20260902033005 | 67 | 323 | 7.0 | 10.0 | 0.00 | 0.00 | 0.00 | 22 | 1008.1 |
| 20260902032906 | 67 | 327 | 7.0 | 10.0 | 0.00 | 0.00 | 0.00 | 22 | 1008.1 |
| 20260902032805 | 67 | 331 | 7.0 | 10.0 | 0.00 | 0.00 | 0.00 | 22 | 1008.1 |
| 20260902032706 | 67 | 329 | 7.0 | 10.0 | 0.00 | 0.00 | 0.00 | 22 | 1008.1 |
| 20260902032605 | 67 | 323 | 7.0 | 12.0 | 0.00 | 0.00 | 0.00 | 22 | 1008.0 |
| 20260902032505 | 67 | 316 | 7.0 | 12.0 | 0.00 | 0.00 | 0.00 | 22 | 1007.9 |
| 20260902032406 | 67 | 323 | 7.0 | 12.0 | 0.00 | 0.00 | 0.00 | 22 | 1008.1 |
| 20260902032306 | 67 | 331 | 7.0 | 13.0 | 0.00 | 0.00 | 0.00 | 22 | 1007.9 |
| 20260902032206 | 67 | 326 | 6.0 | 13.0 | 0.00 | 0.00 | 0.00 | 22 | 1008.0 |
| 20260902032105 | 67 | 312 | 6.0 | 13.0 | 0.00 | 0.00 | 0.00 | 22 | 1008.0 |
| 20260902032006 | 67 | 311 | 5.0 | 13.0 | 0.00 | 0.00 | 0.00 | 21 | 1008.1 |
| 20260902031905 | 67 | 302 | 6.0 | 13.0 | 0.00 | 0.00 | 0.00 | 21 | 1008.0 |
| 20260902031806 | 67 | 284 | 6.0 | 13.0 | 0.00 | 0.00 | 0.00 | 21 | 1008.0 |
| 20260902031705 | 67 | 289 | 6.0 | 13.0 | 0.00 | 0.00 | 0.00 | 22 | 1008.0 |
| 20260902031605 | 67 | 300 | 9.0 | 13.0 | 0.00 | 0.00 | 0.00 | 22 | 1007.9 |
| 20260902031505 | 67 | 310 | 7.0 | 13.0 | 0.00 | 0.00 | 0.00 | 23 | 1007.9 |
| 20260902031405 | 67 | 308 | 8.0 | 13.0 | 0.00 | 0.00 | 0.00 | 23 | 1008.0 |
| 20260902031305 | 68 | 305 | 8.0 | 13.0 | 0.00 | 0.00 | 0.00 | 23 | 1007.9 |
| 20260902031205 | 68 | 310 | 8.0 | 12.0 | 0.00 | 0.00 | 0.00 | 23 | 1008.0 |
| 20260902031105 | 68 | 320 | 8.0 | 12.0 | 0.00 | 0.00 | 0.00 | 23 | 1007.8 |
| 20260902031006 | 68 | 318 | 6.0 | 12.0 | 0.00 | 0.00 | 0.00 | 23 | 1007.8 |
| 20260902030905 | 68 | 321 | 7.0 | 12.0 | 0.00 | 0.00 | 0.00 | 23 | 1007.9 |
| 20260902030805 | 68 | 329 | 8.0 | 19.0 | 0.00 | 0.00 | 0.00 | 23 | 1007.9 |
| 20260902030706 | 69 | 326 | 8.0 | 19.0 | 0.00 | 0.00 | 0.00 | 21 | 1007.8 |
| 20260902030605 | 69 | 314 | 8.0 | 19.0 | 0.00 | 0.00 | 0.00 | 21 | 1007.7 |
| 20260902030506 | 69 | 302 | 8.0 | 19.0 | 0.00 | 0.00 | 0.00 | 21 | 1007.6 |
| 20260902030405 | 69 | 287 | 8.0 | 19.0 | 0.00 | 0.00 | 0.00 | 21 | 1007.7 |
| 20260902030305 | 69 | 274 | 8.0 | 19.0 | 0.00 | 0.00 | 0.00 | 21 | 1007.9 |
| 20260902030205 | 69 | 262 | 8.0 | 19.0 | 0.00 | 0.00 | 0.00 | 21 | 1007.7 |
| 20260902030105 | 69 | 251 | 8.0 | 19.0 | 0.00 | 0.00 | 0.00 | 21 | 1007.7 |
| 20260902030005 | 69 | 242 | 8.0 | 19.0 | 0.00 | 0.00 | 0.00 | 21 | 1007.7 |
| 20260902025905 | 69 | 237 | 8.0 | 19.0 | 0.00 | 0.00 | 0.00 | 20 | 1007.6 |
| 20260902025805 | 69 | 233 | 12.0 | 19.0 | 0.00 | 0.00 | 0.00 | 19 | 1007.6 |
| 20260902025705 | 69 | 237 | 9.0 | 20.0 | 0.00 | 0.00 | 0.00 | 22 | 1007.7 |
| 20260902025605 | 69 | 236 | 9.0 | 20.0 | 0.00 | 0.00 | 0.00 | 21 | 1007.6 |
| 20260902025505 | 69 | 238 | 8.0 | 20.0 | 0.00 | 0.00 | 0.00 | 21 | 1007.6 |
| 20260902025405 | 69 | 243 | 8.0 | 20.0 | 0.00 | 0.00 | 0.00 | 20 | 1007.6 |
| 20260902025306 | 69 | 244 | 8.0 | 20.0 | 0.00 | 0.00 | 0.00 | 21 | 1007.6 |
| 20260902025205 | 69 | 249 | 9.0 | 20.0 | 0.00 | 0.00 | 0.00 | 21 | 1007.6 |
| 20260902025106 | 69 | 254 | 12.0 | 20.0 | 0.00 | 0.00 | 0.00 | 21 | 1007.5 |
| 20260902025005 | 69 | 255 | 11.0 | 20.0 | 0.00 | 0.00 | 0.00 | 21 | 1007.4 |
| 20260902024905 | 69 | 261 | 14.0 | 20.0 | 0.00 | 0.00 | 0.00 | 22 | 1007.5 |
| 20260902024805 | 69 | 260 | 13.0 | 20.0 | 0.00 | 0.00 | 0.00 | 21 | 1007.4 |
| 20260902024705 | 69 | 253 | 11.0 | 18.0 | 0.00 | 0.00 | 0.00 | 22 | 1007.4 |
| 20260902024606 | 69 | 252 | 11.0 | 18.0 | 0.00 | 0.00 | 0.00 | 22 | 1007.5 |
| 20260902024305 | 70 | 243 | 11.0 | 18.0 | 0.00 | 0.00 | 0.00 | 19 | 1007.4 |
| 20260902024205 | 70 | 237 | 8.0 | 18.0 | 0.00 | 0.00 | 0.00 | 18 | 1007.3 |
| 20260902024105 | 70 | 233 | 13.0 | 18.0 | 0.00 | 0.00 | 0.00 | 18 | 1007.4 |
| 20260902024005 | 70 | 231 | 11.0 | 18.0 | 0.00 | 0.00 | 0.00 | 17 | 1007.4 |
| 20260902023905 | 70 | 225 | 11.0 | 18.0 | 0.00 | 0.00 | 0.00 | 16 | 1007.4 |
| 20260902023805 | 70 | 225 | 11.0 | 18.0 | 0.00 | 0.00 | 0.00 | 14 | 1007.3 |
| 20260902023706 | 71 | 231 | 11.0 | 18.0 | 0.00 | 0.00 | 0.00 | 13 | 1007.3 |
| 20260902023605 | 71 | 232 | 11.0 | 20.0 | 0.00 | 0.00 | 0.00 | 13 | 1007.2 |
| 20260902023505 | 71 | 237 | 11.0 | 20.0 | 0.00 | 0.00 | 0.00 | 13 | 1007.3 |
| 20260902023405 | 71 | 237 | 11.0 | 20.0 | 0.00 | 0.00 | 0.00 | 13 | 1007.4 |
| 20260902023305 | 71 | 237 | 11.0 | 20.0 | 0.00 | 0.00 | 0.00 | 13 | 1007.3 |
| 20260902023205 | 71 | 237 | 11.0 | 20.0 | 0.00 | 0.00 | 0.00 | 13 | 1007.3 |
| 20260902023105 | 71 | 238 | 11.0 | 20.0 | 0.00 | 0.00 | 0.00 | 13 | 1007.3 |
| 20260902023005 | 71 | 238 | 11.0 | 20.0 | 0.00 | 0.00 | 0.00 | 13 | 1007.2 |